Time,TemperatureF,DewpointF,PressureIn,WindDirection,WindDirectionDegrees,WindSpeedMPH,WindSpeedGustMPH,Humidity,HourlyPrecipIn,Conditions,Clouds,dailyrainin,SoftwareType,DateUTC
2013-03-30 00:00:00,58.9,34.6,29.94,SSE,162,4.0,22.0,40,0.00,,OVC100,0.00,VWS V13.01,2013-03-30 04:00:00,
2013-03-30 00:05:00,58.9,35.3,29.94,SE,141,14.0,14.0,41,0.00,,OVC100,0.00,VWS V13.01,2013-03-30 04:05:00,
2013-03-30 00:10:00,58.7,35.1,29.94,SE,126,10.0,14.0,41,0.00,,OVC100,0.00,VWS V13.01,2013-03-30 04:10:00,
2013-03-30 00:11:00,58.7,35.1,29.94,SSW,196,16.0,16.0,41,0.00,,OVC100,0.00,VWS V13.01,2013-03-30 04:11:00,
2013-03-30 00:15:00,58.7,35.1,29.94,SSE,164,2.0,26.0,41,0.00,,OVC100,0.00,VWS V13.01,2013-03-30 04:15:00,
2013-03-30 00:16:00,58.7,35.7,29.93,SSE,164,0.0,20.0,42,0.00,,OVC100,0.00,VWS V13.01,2013-03-30 04:16:00,
2013-03-30 00:17:00,58.7,35.7,29.93,SE,131,16.0,16.0,42,0.00,,OVC100,0.00,VWS V13.01,2013-03-30 04:17:00,
2013-03-30 00:20:00,58.6,35.6,29.93,SSE,148,8.0,16.0,42,0.00,,OVC100,0.00,VWS V13.01,2013-03-30 04:20:00,
2013-03-30 00:22:00,58.6,35.6,29.93,SSE,164,4.0,14.0,42,0.00,,OVC100,0.00,VWS V13.01,2013-03-30 04:22:00,
2013-03-30 00:23:00,58.6,35.6,29.93,SSE,157,8.0,14.0,42,0.00,,OVC100,0.00,VWS V13.01,2013-03-30 04:23:00,
2013-03-30 00:25:00,58.4,35.4,29.93,SSW,192,12.0,24.0,42,0.00,,OVC100,0.00,VWS V13.01,2013-03-30 04:25:00,
2013-03-30 00:26:00,58.4,35.4,29.93,SE,143,8.0,24.0,42,0.00,,OVC100,0.00,VWS V13.01,2013-03-30 04:26:00,
2013-03-30 00:28:00,58.4,35.4,29.93,SSE,160,2.0,18.0,42,0.00,,OVC100,0.00,VWS V13.01,2013-03-30 04:28:00,
2013-03-30 00:30:00,58.3,35.9,29.94,SE,128,12.0,14.0,43,0.00,,SCT055,0.00,VWS V14.01,2013-03-30 04:30:00,
2013-03-30 00:31:00,58.4,36.0,29.94,SE,143,12.0,14.0,43,0.00,,OVC100,0.00,VWS V13.01,2013-03-30 04:31:00,
2013-03-30 00:32:00,58.3,35.9,29.94,SSE,150,8.0,14.0,43,0.00,,OVC100,0.00,VWS V13.01,2013-03-30 04:32:00,
2013-03-30 00:33:00,58.3,35.9,29.94,SSE,148,10.0,14.0,43,0.00,,OVC100,0.00,VWS V13.01,2013-03-30 04:33:00,
2013-03-30 00:34:00,58.3,35.9,29.94,SSE,151,6.0,16.0,43,0.00,,OVC100,0.00,VWS V13.01,2013-03-30 04:34:00,
2013-03-30 00:36:00,58.1,35.7,29.94,SSE,147,4.0,10.0,43,0.00,,OVC100,0.00,VWS V13.01,2013-03-30 04:36:00,
2013-03-30 00:37:00,58.1,35.7,29.94,SSE,150,2.0,10.0,43,0.00,,OVC100,0.00,VWS V13.01,2013-03-30 04:37:00,
2013-03-30 00:38:00,58.1,35.7,29.94,SSE,160,8.0,14.0,43,0.00,,BKN110,0.00,VWS V13.01,2013-03-30 04:38:00,
2013-03-30 00:39:00,58.1,35.7,29.94,SE,128,10.0,14.0,43,0.00,,BKN110,0.00,VWS V13.01,2013-03-30 04:39:00,
2013-03-30 00:42:00,58.0,35.7,29.94,SE,143,8.0,14.0,43,0.00,,BKN110,0.00,VWS V13.01,2013-03-30 04:42:00,
2013-03-30 00:44:00,58.0,36.2,29.94,SE,133,16.0,18.0,44,0.00,,BKN110,0.00,VWS V13.01,2013-03-30 04:44:00,
2013-03-30 00:45:00,57.8,36.0,29.94,SSE,168,6.0,18.0,44,0.00,,BKN110,0.00,VWS V13.01,2013-03-30 04:45:00,
2013-03-30 00:47:00,57.8,36.0,29.94,SSW,196,14.0,16.0,44,0.00,,BKN110,0.00,VWS V13.01,2013-03-30 04:47:00,
2013-03-30 00:48:00,57.8,36.0,29.94,ESE,123,0.0,16.0,44,0.00,,BKN110,0.00,VWS V13.01,2013-03-30 04:48:00,
2013-03-30 00:49:00,57.6,35.9,29.94,SSE,147,10.0,16.0,44,0.00,,BKN110,0.00,VWS V13.01,2013-03-30 04:49:00,
2013-03-30 00:50:00,57.6,35.9,29.94,SSE,154,4.0,16.0,44,0.00,,BKN110,0.00,VWS V13.01,2013-03-30 04:50:00,
2013-03-30 00:52:00,57.6,36.4,29.94,SSE,158,2.0,14.0,45,0.00,,BKN110,0.00,VWS V13.01,2013-03-30 04:52:00,
2013-03-30 00:53:00,57.6,36.4,29.94,SSE,158,0.0,14.0,45,0.00,,BKN110,0.00,VWS V13.01,2013-03-30 04:53:00,
2013-03-30 00:54:00,57.5,36.3,29.94,SSE,160,10.0,12.0,45,0.00,,BKN110,0.00,VWS V13.01,2013-03-30 04:54:00,
2013-03-30 00:55:00,57.5,36.3,29.94,SE,143,12.0,16.0,45,0.00,,BKN110,0.00,VWS V13.01,2013-03-30 04:55:00,
2013-03-30 00:58:00,57.3,36.2,29.94,SE,143,4.0,10.0,45,0.00,,BKN110,0.00,VWS V13.01,2013-03-30 04:58:00,
2013-03-30 01:00:00,57.3,36.2,29.94,SSE,151,4.0,12.0,45,0.00,,BKN110,0.00,VWS V13.01,2013-03-30 05:00:00,
2013-03-30 01:03:00,57.2,36.6,29.94,SSE,161,2.0,8.0,46,0.00,,BKN110,0.00,VWS V13.01,2013-03-30 05:03:00,
2013-03-30 01:05:00,57.2,36.6,29.94,SSE,150,6.0,12.0,46,0.00,,BKN110,0.00,VWS V13.01,2013-03-30 05:05:00,
2013-03-30 01:06:00,57.2,36.6,29.94,South,188,12.0,26.0,46,0.00,,BKN110,0.00,VWS V13.01,2013-03-30 05:06:00,
2013-03-30 01:08:00,57.0,36.4,29.94,SSE,157,2.0,24.0,46,0.00,,BKN110,0.00,VWS V13.01,2013-03-30 05:08:00,
2013-03-30 01:10:00,57.0,36.4,29.94,SSE,152,4.0,6.0,46,0.00,,BKN110,0.00,VWS V13.01,2013-03-30 05:10:00,
2013-03-30 01:12:00,57.0,37.0,29.94,SE,130,12.0,22.0,47,0.00,,BKN110,0.00,VWS V13.01,2013-03-30 05:12:00,
2013-03-30 01:13:00,56.9,36.9,29.94,SE,131,6.0,22.0,47,0.00,,BKN110,0.00,VWS V13.01,2013-03-30 05:13:00,
2013-03-30 01:14:00,56.9,36.9,29.94,SE,128,6.0,16.0,47,0.00,,BKN110,0.00,VWS V13.01,2013-03-30 05:14:00,
2013-03-30 01:15:00,56.9,36.9,29.94,SE,133,4.0,16.0,47,0.00,,BKN110,0.00,VWS V13.01,2013-03-30 05:15:00,
2013-03-30 01:18:00,56.9,36.9,29.94,SSE,167,10.0,28.0,47,0.00,,BKN110,0.00,VWS V13.01,2013-03-30 05:18:00,
2013-03-30 01:19:00,56.9,36.9,29.94,SSE,168,12.0,28.0,47,0.00,,BKN110,0.00,VWS V13.01,2013-03-30 05:19:00,
2013-03-30 01:22:00,56.7,37.2,29.94,SSE,154,2.0,12.0,48,0.00,,BKN110,0.00,VWS V13.01,2013-03-30 05:22:00,
2013-03-30 01:23:00,56.7,37.2,29.94,South,176,4.0,16.0,48,0.00,,BKN110,0.00,VWS V13.01,2013-03-30 05:23:00,
2013-03-30 01:24:00,56.7,37.2,29.94,SSE,152,6.0,16.0,48,0.00,,BKN110,0.00,VWS V13.01,2013-03-30 05:24:00,
2013-03-30 01:27:00,56.6,37.7,29.94,SE,133,0.0,12.0,49,0.00,,BKN110,0.00,VWS V13.01,2013-03-30 05:27:00,
2013-03-30 01:29:00,56.6,37.7,29.94,SSE,162,6.0,14.0,49,0.00,,BKN110,0.00,VWS V13.01,2013-03-30 05:29:00,
2013-03-30 01:30:00,56.6,37.7,29.94,South,184,14.0,14.0,49,0.00,,BKN110,0.00,VWS V13.01,2013-03-30 05:30:00,
2013-03-30 01:32:00,56.5,38.1,29.94,SSE,162,8.0,12.0,50,0.00,,BKN110,0.00,VWS V13.01,2013-03-30 05:32:00,
2013-03-30 01:34:00,56.5,38.1,29.94,SSE,148,6.0,12.0,50,0.00,,BKN110,0.00,VWS V13.01,2013-03-30 05:34:00,
2013-03-30 01:35:00,56.5,38.1,29.94,SE,137,4.0,8.0,50,0.00,,BKN110,0.00,VWS V13.01,2013-03-30 05:35:00,
2013-03-30 01:37:00,56.5,38.6,29.94,SE,136,0.0,14.0,51,0.00,,BKN110,0.00,VWS V13.01,2013-03-30 05:37:00,
2013-03-30 01:39:00,56.3,38.9,29.94,SSE,147,8.0,10.0,52,0.00,,OVC110,0.00,VWS V13.01,2013-03-30 05:39:00,
2013-03-30 01:40:00,56.3,38.9,29.94,SSE,160,6.0,14.0,52,0.00,,OVC110,0.00,VWS V13.01,2013-03-30 05:40:00,
2013-03-30 01:41:00,56.3,38.9,29.94,SSE,160,4.0,14.0,52,0.00,,OVC110,0.00,VWS V13.01,2013-03-30 05:41:00,
2013-03-30 01:43:00,56.3,39.4,29.94,South,172,12.0,20.0,53,0.00,,OVC110,0.00,VWS V13.01,2013-03-30 05:43:00,
2013-03-30 01:44:00,56.2,39.3,29.94,SSE,154,6.0,16.0,53,0.00,,OVC110,0.00,VWS V13.01,2013-03-30 05:44:00,
2013-03-30 01:46:00,56.2,39.3,29.94,SSE,147,8.0,20.0,53,0.00,,OVC110,0.00,VWS V13.01,2013-03-30 05:46:00,
2013-03-30 01:48:00,56.2,39.8,29.94,SE,138,14.0,14.0,54,0.00,,OVC110,0.00,VWS V13.01,2013-03-30 05:48:00,
2013-03-30 01:49:00,56.0,39.6,29.94,South,191,8.0,14.0,54,0.00,,OVC110,0.00,VWS V13.01,2013-03-30 05:49:00,
2013-03-30 01:51:00,56.0,40.1,29.94,SSE,157,6.0,14.0,55,0.00,,OVC110,0.00,VWS V13.01,2013-03-30 05:51:00,
2013-03-30 01:53:00,56.0,40.1,29.94,South,175,4.0,16.0,55,0.00,,OVC110,0.00,VWS V13.01,2013-03-30 05:53:00,
2013-03-30 01:55:00,56.0,40.1,29.94,South,169,6.0,14.0,55,0.00,,OVC110,0.00,VWS V13.01,2013-03-30 05:55:00,
2013-03-30 01:57:00,56.0,40.5,29.94,SSE,158,4.0,10.0,56,0.00,,OVC110,0.00,VWS V13.01,2013-03-30 05:57:00,
2013-03-30 01:58:00,56.0,40.5,29.94,SSE,160,4.0,4.0,56,0.00,,OVC110,0.00,VWS V13.01,2013-03-30 05:58:00,
2013-03-30 02:00:00,55.9,40.9,29.94,SSE,155,6.0,10.0,57,0.00,,OVC110,0.00,VWS V13.01,2013-03-30 06:00:00,
2013-03-30 02:02:00,55.9,41.3,29.95,South,182,14.0,16.0,58,0.00,,OVC110,0.00,VWS V13.01,2013-03-30 06:02:00,
2013-03-30 02:03:00,55.9,41.3,29.95,South,171,0.0,14.0,58,0.00,,OVC110,0.00,VWS V13.01,2013-03-30 06:03:00,
2013-03-30 02:06:00,55.9,41.8,29.95,South,179,2.0,6.0,59,0.00,,OVC110,0.00,VWS V13.01,2013-03-30 06:06:00,
2013-03-30 02:08:00,55.9,42.2,29.95,South,179,0.0,6.0,60,0.00,,OVC110,0.00,VWS V13.01,2013-03-30 06:08:00,
2013-03-30 02:11:00,55.7,42.5,29.95,SSE,155,0.0,6.0,61,0.00,,OVC110,0.00,VWS V13.01,2013-03-30 06:11:00,
2013-03-30 02:13:00,55.7,42.9,29.95,South,179,2.0,10.0,62,0.01,,OVC110,0.01,VWS V13.01,2013-03-30 06:13:00,
2013-03-30 02:16:00,55.6,43.6,29.95,South,176,0.0,0.0,64,0.01,,OVC110,0.01,VWS V13.01,2013-03-30 06:16:00,
2013-03-30 02:18:00,55.4,43.8,29.95,South,176,0.0,0.0,65,0.01,,OVC110,0.01,VWS V13.01,2013-03-30 06:18:00,
2013-03-30 02:22:00,55.3,45.3,29.95,South,176,0.0,0.0,69,0.02,,OVC110,0.02,VWS V13.01,2013-03-30 06:22:00,
2013-03-30 02:23:00,55.4,45.4,29.95,South,176,0.0,0.0,69,0.02,,OVC110,0.02,VWS V13.01,2013-03-30 06:23:00,
2013-03-30 02:24:00,55.3,45.3,29.95,South,176,0.0,0.0,69,0.02,,OVC110,0.03,VWS V13.01,2013-03-30 06:24:00,
2013-03-30 02:27:00,55.1,46.2,29.95,South,176,0.0,0.0,72,0.03,,OVC110,0.03,VWS V13.01,2013-03-30 06:27:00,
2013-03-30 02:28:00,55.0,46.2,29.95,South,176,0.0,0.0,72,0.03,,OVC110,0.03,VWS V13.01,2013-03-30 06:28:00,
2013-03-30 02:29:00,55.0,46.2,29.95,South,176,0.0,0.0,72,0.04,,OVC110,0.04,VWS V13.01,2013-03-30 06:29:00,
2013-03-30 02:30:00,54.8,46.3,29.97,South,178,0.0,0.0,73,0.04,,SCT055,0.04,VWS V14.01,2013-03-30 06:30:00,
2013-03-30 02:33:00,54.5,46.4,29.97,South,179,0.0,0.0,74,0.04,,OVC110,0.05,VWS V13.01,2013-03-30 06:33:00,
2013-03-30 02:34:00,54.4,46.7,29.97,South,179,0.0,0.0,75,0.05,,OVC110,0.05,VWS V13.01,2013-03-30 06:34:00,
2013-03-30 02:38:00,53.9,46.5,29.97,South,179,2.0,4.0,76,0.06,,-RA,0.06,VWS V13.01,2013-03-30 06:38:00,
2013-03-30 02:39:00,53.8,46.8,29.97,South,179,0.0,4.0,77,0.06,,-RA,0.06,VWS V13.01,2013-03-30 06:39:00,
2013-03-30 02:43:00,53.3,46.6,29.97,South,179,0.0,0.0,78,0.08,,-RA,0.08,VWS V13.01,2013-03-30 06:43:00,
2013-03-30 02:45:00,53.3,46.6,29.97,East,97,0.0,0.0,78,0.08,,-RA,0.09,VWS V13.01,2013-03-30 06:45:00,
2013-03-30 02:48:00,52.8,46.8,29.97,ENE,58,0.0,0.0,80,0.10,, +RA,0.10,VWS V13.01,2013-03-30 06:48:00,
2013-03-30 02:50:00,52.5,46.8,29.97,ENE,58,0.0,0.0,81,0.10,, +RA,0.10,VWS V13.01,2013-03-30 06:50:00,
2013-03-30 02:53:00,52.6,47.3,29.97,ENE,58,0.0,2.0,82,0.11,, +RA,0.11,VWS V13.01,2013-03-30 06:53:00,
2013-03-30 02:55:00,52.3,47.0,29.97,ENE,58,0.0,0.0,82,0.12,, +RA,0.12,VWS V13.01,2013-03-30 06:55:00,
2013-03-30 02:59:00,52.3,47.3,29.97,NE,54,0.0,0.0,83,0.13,, +RA,0.13,VWS V13.01,2013-03-30 06:59:00,
2013-03-30 03:00:00,52.2,47.5,29.97,ENE,58,0.0,0.0,84,0.14,, +RA,0.14,VWS V13.01,2013-03-30 07:00:00,
2013-03-30 03:04:00,51.9,47.2,29.99,ENE,58,0.0,0.0,84,0.16,, +RA,0.16,VWS V13.01,2013-03-30 07:04:00,
2013-03-30 03:05:00,51.9,47.2,29.99,ENE,58,0.0,0.0,84,0.17,, +RA,0.17,VWS V13.01,2013-03-30 07:05:00,
2013-03-30 03:06:00,51.7,47.0,29.99,ENE,58,0.0,0.0,84,0.17,, +RA,0.17,VWS V13.01,2013-03-30 07:06:00,
2013-03-30 03:09:00,51.9,47.5,29.99,ENE,58,0.0,0.0,85,0.18,, +RA,0.18,VWS V13.01,2013-03-30 07:09:00,
2013-03-30 03:11:00,51.7,47.3,29.99,ENE,58,0.0,0.0,85,0.19,, +RA,0.19,VWS V13.01,2013-03-30 07:11:00,
2013-03-30 03:12:00,51.6,47.2,29.99,ENE,58,0.0,0.0,85,0.20,, +RA,0.20,VWS V13.01,2013-03-30 07:12:00,
2013-03-30 03:14:00,51.6,47.6,29.99,ENE,58,0.0,0.0,86,0.21,, +RA,0.21,VWS V13.01,2013-03-30 07:14:00,
2013-03-30 03:16:00,51.6,47.6,30.00,ENE,58,0.0,0.0,86,0.22,, +RA,0.22,VWS V13.01,2013-03-30 07:16:00,
2013-03-30 03:17:00,51.6,47.6,30.00,ENE,58,0.0,0.0,86,0.23,, +RA,0.23,VWS V13.01,2013-03-30 07:17:00,
2013-03-30 03:19:00,51.3,47.3,30.00,ENE,58,0.0,0.0,86,0.24,, +RA,0.24,VWS V13.01,2013-03-30 07:19:00,
2013-03-30 03:22:00,51.3,47.3,30.00,ENE,58,0.0,0.0,86,0.25,, +RA,0.26,VWS V13.01,2013-03-30 07:22:00,
2013-03-30 03:23:00,51.3,47.3,30.00,ENE,58,0.0,0.0,86,0.26,, +RA,0.26,VWS V13.01,2013-03-30 07:23:00,
2013-03-30 03:24:00,51.4,47.7,30.00,ENE,59,0.0,0.0,87,0.27,, +RA,0.27,VWS V13.01,2013-03-30 07:24:00,
2013-03-30 03:28:00,51.4,47.7,30.00,ENE,66,4.0,6.0,87,0.29,, +RA,0.29,VWS V13.01,2013-03-30 07:28:00,
2013-03-30 03:30:00,51.3,47.6,30.00,SE,136,12.0,12.0,87,0.31,, +RA,0.31,VWS V13.01,2013-03-30 07:30:00,
2013-03-30 03:33:00,51.3,47.6,29.96,SSE,152,14.0,18.0,87,0.29,, +RA,0.33,VWS V13.01,2013-03-30 07:33:00,
2013-03-30 03:35:00,51.0,47.6,29.96,SE,143,18.0,26.0,88,0.30,, +RA,0.34,VWS V13.01,2013-03-30 07:35:00,
2013-03-30 03:38:00,51.0,47.6,29.96,SE,144,22.0,28.0,88,0.32,,RA,0.37,VWS V13.01,2013-03-30 07:38:00,
2013-03-30 03:40:00,51.0,47.9,29.96,SE,140,20.0,24.0,89,0.34,,RA,0.38,VWS V13.01,2013-03-30 07:40:00,
2013-03-30 03:41:00,51.1,48.0,29.96,SSE,151,20.0,26.0,89,0.34,,RA,0.39,VWS V13.01,2013-03-30 07:41:00,
2013-03-30 03:43:00,51.0,47.9,29.96,South,191,32.0,44.0,89,0.36,,RA,0.40,VWS V13.01,2013-03-30 07:43:00,
2013-03-30 03:46:00,51.3,48.5,29.89,SSE,147,22.0,48.0,90,0.38,,RA,0.42,VWS V13.01,2013-03-30 07:46:00,
2013-03-30 03:48:00,51.3,48.5,29.89,South,175,32.0,40.0,90,0.39,,-RA,0.44,VWS V13.01,2013-03-30 07:48:00,
2013-03-30 03:51:00,51.4,48.6,29.89,SE,138,24.0,52.0,90,0.41,,-RA,0.45,VWS V13.01,2013-03-30 07:51:00,
2013-03-30 03:52:00,51.6,49.1,29.89,SE,134,18.0,38.0,91,0.42,,-RA,0.46,VWS V13.01,2013-03-30 07:52:00,
2013-03-30 03:53:00,51.7,49.2,29.89,South,175,28.0,34.0,91,0.42,,-RA,0.47,VWS V13.01,2013-03-30 07:53:00,
2013-03-30 03:54:00,51.6,49.1,29.89,SSE,165,26.0,34.0,91,0.43,,-RA,0.47,VWS V13.01,2013-03-30 07:54:00,
2013-03-30 03:56:00,51.7,48.9,29.89,SSE,158,14.0,28.0,90,0.45,,-RA,0.49,VWS V13.01,2013-03-30 07:56:00,
2013-03-30 03:57:00,51.6,48.8,29.89,SSE,155,20.0,28.0,90,0.45,,-RA,0.49,VWS V13.01,2013-03-30 07:57:00,
2013-03-30 03:58:00,51.6,48.8,29.89,SSE,154,16.0,38.0,90,0.45,,-RA,0.50,VWS V13.01,2013-03-30 07:58:00,
2013-03-30 03:59:00,51.6,48.8,29.89,SSE,152,38.0,38.0,90,0.46,,-RA,0.50,VWS V13.01,2013-03-30 07:59:00,
2013-03-30 04:00:00,51.4,48.6,29.82,SSE,157,20.0,34.0,90,0.47,,SCT055,0.51,VWS V14.01,2013-03-30 08:00:00,
2013-03-30 04:01:00,51.4,48.6,29.82,SSE,157,20.0,34.0,90,0.47,,-RA,0.51,VWS V13.01,2013-03-30 08:01:00,
2013-03-30 04:02:00,51.4,48.6,29.82,SSE,150,14.0,28.0,90,0.36,,-RA,0.51,VWS V13.01,2013-03-30 08:02:00,
2013-03-30 04:03:00,51.3,48.5,29.82,South,178,36.0,42.0,90,0.36,,-RA,0.52,VWS V13.01,2013-03-30 08:03:00,
2013-03-30 04:04:00,51.3,48.5,29.82,South,181,40.0,42.0,90,0.37,,-RA,0.52,VWS V13.01,2013-03-30 08:04:00,
2013-03-30 04:07:00,51.1,48.0,29.82,South,169,26.0,32.0,89,0.37,,-RA,0.52,VWS V13.01,2013-03-30 08:07:00,
2013-03-30 04:08:00,51.3,48.2,29.82,SSE,155,24.0,26.0,89,0.37,,-RA,0.52,VWS V13.01,2013-03-30 08:08:00,
2013-03-30 04:09:00,51.3,48.2,29.82,SSE,154,10.0,28.0,89,0.37,,-RA,0.52,VWS V13.01,2013-03-30 08:09:00,
2013-03-30 04:12:00,51.4,48.0,29.82,SSE,154,10.0,28.0,88,0.37,,-RA,0.52,VWS V13.01,2013-03-30 08:12:00,
2013-03-30 04:13:00,51.4,48.0,29.82,SSE,147,14.0,24.0,88,0.37,,-RA,0.52,VWS V13.01,2013-03-30 08:13:00,
2013-03-30 04:14:00,51.4,47.7,29.82,SSE,164,6.0,24.0,87,0.37,,-RA,0.52,VWS V13.01,2013-03-30 08:14:00,
2013-03-30 04:15:00,51.4,47.7,29.82,SW,226,12.0,24.0,87,0.37,,-RA,0.52,VWS V13.01,2013-03-30 08:15:00,
2013-03-30 04:17:00,51.4,47.7,29.84,South,179,12.0,16.0,87,0.37,,-RA,0.52,VWS V13.01,2013-03-30 08:17:00,
2013-03-30 04:18:00,51.6,47.9,29.84,South,169,12.0,14.0,87,0.37,,-RA,0.52,VWS V13.01,2013-03-30 08:18:00,
2013-03-30 04:19:00,51.6,47.6,29.84,South,184,12.0,22.0,86,0.37,,-RA,0.52,VWS V13.01,2013-03-30 08:19:00,
2013-03-30 04:20:00,51.6,47.6,29.84,SSE,165,12.0,22.0,86,0.37,,-RA,0.52,VWS V13.01,2013-03-30 08:20:00,
2013-03-30 04:23:00,51.9,47.8,29.84,ESE,114,6.0,26.0,86,0.37,,-RA,0.52,VWS V13.01,2013-03-30 08:23:00,
2013-03-30 04:24:00,51.7,47.7,29.84,South,188,14.0,26.0,86,0.37,,-RA,0.52,VWS V13.01,2013-03-30 08:24:00,
2013-03-30 04:25:00,51.9,47.8,29.84,SSE,164,20.0,28.0,86,0.37,,-RA,0.52,VWS V13.01,2013-03-30 08:25:00,
2013-03-30 04:28:00,52.0,47.6,29.84,South,172,8.0,22.0,85,0.37,,-RA,0.52,VWS V13.01,2013-03-30 08:28:00,
2013-03-30 04:29:00,52.0,47.6,29.84,ESE,121,10.0,22.0,85,0.37,,-RA,0.52,VWS V13.01,2013-03-30 08:29:00,
2013-03-30 04:30:00,52.0,47.6,29.84,SSE,158,10.0,20.0,85,0.37,,-RA,0.52,VWS V13.01,2013-03-30 08:30:00,
2013-03-30 04:33:00,52.2,47.5,29.85,South,186,14.0,22.0,84,0.20,,-RA,0.52,VWS V13.01,2013-03-30 08:33:00,
2013-03-30 04:34:00,52.2,47.5,29.85,SSE,167,8.0,22.0,84,0.20,,-RA,0.52,VWS V13.01,2013-03-30 08:34:00,
2013-03-30 04:35:00,52.2,47.5,29.85,SSE,161,4.0,14.0,84,0.20,,-RA,0.52,VWS V13.01,2013-03-30 08:35:00,
2013-03-30 04:38:00,52.3,47.6,29.85,SSE,160,10.0,26.0,84,0.20,,-RA,0.52,VWS V13.01,2013-03-30 08:38:00,
2013-03-30 04:39:00,52.3,47.6,29.85,South,175,6.0,26.0,84,0.20,,-RA,0.52,VWS V13.01,2013-03-30 08:39:00,
2013-03-30 04:40:00,52.2,47.5,29.85,SSW,203,14.0,14.0,84,0.20,,-RA,0.52,VWS V13.01,2013-03-30 08:40:00,
2013-03-30 04:41:00,52.3,47.6,29.85,SSE,160,14.0,20.0,84,0.20,,-RA,0.52,VWS V13.01,2013-03-30 08:41:00,
2013-03-30 04:43:00,52.5,48.1,29.85,South,181,16.0,16.0,85,0.20,,-RA,0.52,VWS V13.01,2013-03-30 08:43:00,
2013-03-30 04:44:00,52.3,47.9,29.85,South,175,12.0,16.0,85,0.20,,-RA,0.52,VWS V13.01,2013-03-30 08:44:00,
2013-03-30 04:46:00,52.6,48.2,29.84,South,185,14.0,32.0,85,0.20,,-RA,0.52,VWS V13.01,2013-03-30 08:46:00,
2013-03-30 04:47:00,52.5,48.1,29.84,SSE,162,4.0,24.0,85,0.20,,-RA,0.52,VWS V13.01,2013-03-30 08:47:00,
2013-03-30 04:48:00,52.6,48.2,29.84,South,185,14.0,22.0,85,0.20,,-RA,0.52,VWS V13.01,2013-03-30 08:48:00,
2013-03-30 04:49:00,52.6,48.2,29.84,SSE,148,12.0,24.0,85,0.20,,-RA,0.52,VWS V13.01,2013-03-30 08:49:00,
2013-03-30 04:53:00,52.5,48.1,29.84,East,96,12.0,16.0,85,0.20,,-RA,0.52,VWS V13.01,2013-03-30 08:53:00,
2013-03-30 04:54:00,52.5,48.1,29.84,SE,130,12.0,20.0,85,0.20,,-RA,0.52,VWS V13.01,2013-03-30 08:54:00,
2013-03-30 04:58:00,52.5,48.1,29.84,SSE,164,4.0,14.0,85,0.20,,-RA,0.52,VWS V13.01,2013-03-30 08:58:00,
2013-03-30 04:59:00,52.5,48.1,29.84,South,181,10.0,12.0,85,0.20,,-RA,0.52,VWS V13.01,2013-03-30 08:59:00,
2013-03-30 05:00:00,52.5,48.1,29.83,SE,140,12.0,20.0,85,0.20,,SCT055,0.52,VWS V14.01,2013-03-30 09:00:00,
2013-03-30 05:03:00,52.5,48.1,29.83,SE,145,12.0,20.0,85,0.01,,-RA,0.52,VWS V13.01,2013-03-30 09:03:00,
2013-03-30 05:04:00,52.3,47.9,29.83,SSW,192,12.0,20.0,85,0.01,,-RA,0.52,VWS V13.01,2013-03-30 09:04:00,
2013-03-30 05:05:00,52.3,47.9,29.83,SSW,192,8.0,20.0,85,0.01,,-RA,0.52,VWS V13.01,2013-03-30 09:05:00,
2013-03-30 05:08:00,52.2,47.8,29.83,SSE,161,10.0,22.0,85,0.01,,-RA,0.52,VWS V13.01,2013-03-30 09:08:00,
2013-03-30 05:09:00,52.0,47.6,29.83,SSE,151,10.0,22.0,85,0.01,,-RA,0.52,VWS V13.01,2013-03-30 09:09:00,
2013-03-30 05:10:00,52.2,47.8,29.83,SSE,157,8.0,22.0,85,0.01,,-RA,0.52,VWS V13.01,2013-03-30 09:10:00,
2013-03-30 05:11:00,52.0,47.6,29.83,SE,144,0.0,14.0,85,0.01,,-RA,0.52,VWS V13.01,2013-03-30 09:11:00,
2013-03-30 05:13:00,52.0,48.0,29.83,South,178,8.0,20.0,86,0.01,,-RA,0.52,VWS V13.01,2013-03-30 09:13:00,
2013-03-30 05:14:00,52.0,47.6,29.83,SSE,155,10.0,20.0,85,0.01,,-RA,0.52,VWS V13.01,2013-03-30 09:14:00,
2013-03-30 05:15:00,51.9,47.8,29.83,SSE,167,4.0,14.0,86,0.01,,-RA,0.52,VWS V13.01,2013-03-30 09:15:00,
2013-03-30 05:17:00,51.9,47.8,29.83,SSW,200,12.0,18.0,86,0.01,,-RA,0.52,VWS V13.01,2013-03-30 09:17:00,
2013-03-30 05:19:00,51.9,47.8,29.83,SSE,150,10.0,14.0,86,0.01,,-RA,0.52,VWS V13.01,2013-03-30 09:19:00,
2013-03-30 05:20:00,51.7,47.7,29.83,SSE,151,8.0,12.0,86,0.01,,-RA,0.52,VWS V13.01,2013-03-30 09:20:00,
2013-03-30 05:23:00,51.7,47.7,29.83,South,185,12.0,16.0,86,0.01,,-RA,0.52,VWS V13.01,2013-03-30 09:23:00,
2013-03-30 05:24:00,51.7,47.7,29.83,SSE,162,6.0,16.0,86,0.01,,-RA,0.52,VWS V13.01,2013-03-30 09:24:00,
2013-03-30 05:25:00,51.7,47.7,29.83,SSE,155,10.0,12.0,86,0.01,,-RA,0.52,VWS V13.01,2013-03-30 09:25:00,
2013-03-30 05:29:00,51.6,47.9,29.83,South,176,14.0,20.0,87,0.01,,-RA,0.52,VWS V13.01,2013-03-30 09:29:00,
2013-03-30 05:30:00,51.6,47.9,29.83,SE,126,14.0,20.0,87,0.01,,-RA,0.52,VWS V13.01,2013-03-30 09:30:00,
2013-03-30 05:31:00,51.6,47.9,29.82,ESE,117,12.0,14.0,87,0.01,,-RA,0.52,VWS V13.01,2013-03-30 09:31:00,
2013-03-30 05:34:00,51.6,47.9,29.82,SSE,158,6.0,14.0,87,0.00,,-RA,0.52,VWS V13.01,2013-03-30 09:34:00,
2013-03-30 05:35:00,51.6,47.9,29.82,SE,140,4.0,14.0,87,0.00,,-RA,0.52,VWS V13.01,2013-03-30 09:35:00,
2013-03-30 05:36:00,51.6,47.9,29.82,SE,133,14.0,14.0,87,0.00,,-RA,0.52,VWS V13.01,2013-03-30 09:36:00,
2013-03-30 05:39:00,51.6,47.9,29.82,ESE,117,6.0,14.0,87,0.00,,FEW100,0.52,VWS V13.01,2013-03-30 09:39:00,
2013-03-30 05:40:00,51.6,47.9,29.82,ESE,120,6.0,14.0,87,0.00,,FEW100,0.52,VWS V13.01,2013-03-30 09:40:00,
2013-03-30 05:42:00,51.6,47.9,29.82,SSE,150,16.0,20.0,87,0.00,,FEW100,0.52,VWS V13.01,2013-03-30 09:42:00,
2013-03-30 05:44:00,51.6,47.9,29.82,SSE,148,12.0,16.0,87,0.00,,FEW100,0.52,VWS V13.01,2013-03-30 09:44:00,
2013-03-30 05:45:00,51.6,48.2,29.82,SE,133,20.0,20.0,88,0.00,,FEW100,0.52,VWS V13.01,2013-03-30 09:45:00,
2013-03-30 05:46:00,51.6,48.2,29.81,SSE,154,12.0,20.0,88,0.00,,FEW100,0.52,VWS V13.01,2013-03-30 09:46:00,
2013-03-30 05:48:00,51.4,48.0,29.81,SSE,147,2.0,14.0,88,0.00,,FEW100,0.52,VWS V13.01,2013-03-30 09:48:00,
2013-03-30 05:50:00,51.4,48.0,29.81,SSE,150,4.0,14.0,88,0.00,,FEW100,0.52,VWS V13.01,2013-03-30 09:50:00,
2013-03-30 05:51:00,51.4,48.0,29.81,ESE,123,4.0,14.0,88,0.00,,FEW100,0.52,VWS V13.01,2013-03-30 09:51:00,
2013-03-30 05:53:00,51.4,48.0,29.81,SE,137,6.0,14.0,88,0.00,,FEW100,0.52,VWS V13.01,2013-03-30 09:53:00,
2013-03-30 05:55:00,51.4,48.0,29.81,SE,127,6.0,14.0,88,0.00,,FEW100,0.52,VWS V13.01,2013-03-30 09:55:00,
2013-03-30 05:56:00,51.4,48.0,29.81,SE,144,10.0,14.0,88,0.00,,FEW100,0.52,VWS V13.01,2013-03-30 09:56:00,
2013-03-30 05:57:00,51.4,48.0,29.81,SE,143,4.0,12.0,88,0.00,,FEW100,0.52,VWS V13.01,2013-03-30 09:57:00,
2013-03-30 05:59:00,51.4,48.0,29.81,ESE,121,0.0,10.0,88,0.00,,FEW100,0.52,VWS V13.01,2013-03-30 09:59:00,
2013-03-30 06:00:00,51.4,48.0,29.81,SE,127,0.0,2.0,88,0.00,,FEW100,0.52,VWS V13.01,2013-03-30 10:00:00,
2013-03-30 06:02:00,51.3,47.9,29.82,SE,145,10.0,12.0,88,0.00,,FEW100,0.52,VWS V13.01,2013-03-30 10:02:00,
2013-03-30 06:03:00,51.3,47.9,29.82,SE,143,0.0,12.0,88,0.00,,FEW100,0.52,VWS V13.01,2013-03-30 10:03:00,
2013-03-30 06:04:00,51.3,47.9,29.82,SE,143,4.0,8.0,88,0.00,,FEW100,0.52,VWS V13.01,2013-03-30 10:04:00,
2013-03-30 06:06:00,51.3,47.9,29.82,SE,144,0.0,6.0,88,0.00,,FEW100,0.52,VWS V13.01,2013-03-30 10:06:00,
2013-03-30 06:07:00,51.3,47.9,29.82,SE,144,6.0,6.0,88,0.00,,FEW100,0.52,VWS V13.01,2013-03-30 10:07:00,
2013-03-30 06:09:00,51.3,47.9,29.82,SE,134,8.0,14.0,88,0.00,,FEW100,0.52,VWS V13.01,2013-03-30 10:09:00,
2013-03-30 06:11:00,51.1,47.7,29.82,SSE,152,4.0,10.0,88,0.00,,FEW100,0.52,VWS V13.01,2013-03-30 10:11:00,
2013-03-30 06:14:00,51.3,47.9,29.82,SSE,151,4.0,12.0,88,0.00,,FEW100,0.52,VWS V13.01,2013-03-30 10:14:00,
2013-03-30 06:16:00,51.3,47.9,29.82,SSE,167,6.0,8.0,88,0.00,,FEW100,0.52,VWS V13.01,2013-03-30 10:16:00,
2013-03-30 06:19:00,51.3,47.9,29.82,South,175,20.0,20.0,88,0.00,,FEW100,0.52,VWS V13.01,2013-03-30 10:19:00,
2013-03-30 06:20:00,51.1,47.7,29.82,South,188,10.0,20.0,88,0.00,,FEW100,0.52,VWS V13.01,2013-03-30 10:20:00,
2013-03-30 06:22:00,51.3,48.2,29.82,South,189,14.0,14.0,89,0.00,,FEW100,0.52,VWS V13.01,2013-03-30 10:22:00,
2013-03-30 06:24:00,51.1,48.0,29.82,SE,140,4.0,14.0,89,0.00,,FEW100,0.52,VWS V13.01,2013-03-30 10:24:00,
2013-03-30 06:25:00,51.3,48.2,29.82,SE,140,4.0,14.0,89,0.00,,FEW100,0.52,VWS V13.01,2013-03-30 10:25:00,
2013-03-30 06:27:00,51.3,48.2,29.82,SSE,155,2.0,6.0,89,0.00,,FEW100,0.52,VWS V13.01,2013-03-30 10:27:00,
2013-03-30 06:29:00,51.3,48.2,29.82,SSE,161,10.0,22.0,89,0.00,,FEW100,0.52,VWS V13.01,2013-03-30 10:29:00,
2013-03-30 06:30:00,51.3,48.2,29.82,South,185,6.0,22.0,89,0.00,,FEW100,0.52,VWS V13.01,2013-03-30 10:30:00,
2013-03-30 06:32:00,51.3,48.2,29.82,SSE,158,2.0,14.0,89,0.00,,FEW100,0.52,VWS V13.01,2013-03-30 10:32:00,
2013-03-30 06:35:00,51.1,48.0,29.82,SSW,200,16.0,26.0,89,0.00,,FEW100,0.52,VWS V13.01,2013-03-30 10:35:00,
2013-03-30 06:38:00,51.1,48.0,29.82,South,182,6.0,12.0,89,0.00,,BKN065,0.52,VWS V13.01,2013-03-30 10:38:00,
2013-03-30 06:40:00,51.1,48.0,29.82,SSE,155,2.0,10.0,89,0.00,,BKN065,0.52,VWS V13.01,2013-03-30 10:40:00,
2013-03-30 06:44:00,51.1,48.0,29.82,South,181,4.0,14.0,89,0.00,,BKN065,0.52,VWS V13.01,2013-03-30 10:44:00,
2013-03-30 06:45:00,51.1,48.0,29.82,WSW,258,2.0,6.0,89,0.00,,BKN065,0.52,VWS V13.01,2013-03-30 10:45:00,
2013-03-30 06:49:00,51.1,48.0,29.84,NNE,14,12.0,12.0,89,0.00,,BKN065,0.52,VWS V13.01,2013-03-30 10:49:00,
2013-03-30 06:50:00,51.3,48.2,29.84,NW,316,0.0,14.0,89,0.00,,BKN065,0.52,VWS V13.01,2013-03-30 10:50:00,
2013-03-30 06:51:00,51.1,48.0,29.84,NW,316,4.0,14.0,89,0.00,,BKN065,0.52,VWS V13.01,2013-03-30 10:51:00,
2013-03-30 06:54:00,51.1,48.0,29.84,NW,311,6.0,10.0,89,0.01,,BKN065,0.53,VWS V13.01,2013-03-30 10:54:00,
2013-03-30 06:55:00,51.3,48.2,29.84,NNW,330,0.0,10.0,89,0.01,,BKN065,0.53,VWS V13.01,2013-03-30 10:55:00,
2013-03-30 06:56:00,51.3,48.2,29.84,NNW,330,0.0,6.0,89,0.01,,BKN065,0.53,VWS V13.01,2013-03-30 10:56:00,
2013-03-30 06:59:00,51.3,48.2,29.84,ENE,64,6.0,6.0,89,0.01,,BKN065,0.54,VWS V13.01,2013-03-30 10:59:00,
2013-03-30 07:00:00,51.3,48.2,29.84,North,8,6.0,10.0,89,0.03,,SCT055,0.55,VWS V14.01,2013-03-30 11:00:00,
2013-03-30 07:02:00,51.3,48.2,29.84,North,8,6.0,10.0,89,0.03,,BKN065,0.55,VWS V13.01,2013-03-30 11:02:00,
2013-03-30 07:05:00,51.4,48.3,29.84,North,0,4.0,14.0,89,0.04,,BKN065,0.56,VWS V13.01,2013-03-30 11:05:00,
2013-03-30 07:07:00,51.4,48.3,29.84,North,4,10.0,12.0,89,0.05,,BKN065,0.57,VWS V13.01,2013-03-30 11:07:00,
2013-03-30 07:09:00,51.1,48.3,29.84,NNE,17,10.0,14.0,90,0.05,,BKN065,0.57,VWS V13.01,2013-03-30 11:09:00,
2013-03-30 07:10:00,51.3,48.5,29.84,North,8,8.0,14.0,90,0.05,,BKN065,0.57,VWS V13.01,2013-03-30 11:10:00,
2013-03-30 07:12:00,51.1,48.3,29.84,NNE,27,2.0,12.0,90,0.05,,BKN065,0.57,VWS V13.01,2013-03-30 11:12:00,
2013-03-30 07:15:00,51.0,48.2,29.84,ENE,61,4.0,12.0,90,0.05,,BKN065,0.57,VWS V13.01,2013-03-30 11:15:00,
2013-03-30 07:17:00,51.0,48.2,29.83,ESE,121,10.0,14.0,90,0.05,,BKN065,0.57,VWS V13.01,2013-03-30 11:17:00,
2013-03-30 07:20:00,50.8,48.0,29.83,East,97,0.0,12.0,90,0.05,,BKN065,0.57,VWS V13.01,2013-03-30 11:20:00,
2013-03-30 07:22:00,51.0,48.2,29.83,NNW,330,16.0,20.0,90,0.05,,BKN065,0.57,VWS V13.01,2013-03-30 11:22:00,
2013-03-30 07:23:00,51.0,48.2,29.83,NNW,330,24.0,24.0,90,0.05,,BKN065,0.57,VWS V13.01,2013-03-30 11:23:00,
2013-03-30 07:25:00,51.0,48.2,29.83,North,6,10.0,20.0,90,0.05,,BKN065,0.57,VWS V13.01,2013-03-30 11:25:00,
2013-03-30 07:28:00,51.0,48.2,29.83,North,356,12.0,24.0,90,0.05,,BKN065,0.57,VWS V13.01,2013-03-30 11:28:00,
2013-03-30 07:30:00,50.8,48.0,29.83,NNW,343,20.0,24.0,90,0.06,,BKN065,0.58,VWS V13.01,2013-03-30 11:30:00,
2013-03-30 07:32:00,51.0,48.2,29.87,NNW,343,0.0,20.0,90,0.07,,BKN065,0.59,VWS V13.01,2013-03-30 11:32:00,
2013-03-30 07:33:00,51.1,48.3,29.87,ESE,112,18.0,18.0,90,0.07,,BKN065,0.60,VWS V13.01,2013-03-30 11:33:00,
2013-03-30 07:35:00,51.0,48.5,29.87,SE,137,6.0,12.0,91,0.09,,BKN065,0.61,VWS V13.01,2013-03-30 11:35:00,
2013-03-30 07:37:00,51.1,48.6,29.87,SE,133,0.0,10.0,91,0.10,,BKN065,0.62,VWS V13.01,2013-03-30 11:37:00,
2013-03-30 07:39:00,51.3,48.8,29.87,North,0,10.0,10.0,91,0.11,, +RA,0.63,VWS V13.01,2013-03-30 11:39:00,
2013-03-30 07:40:00,51.1,48.6,29.87,North,0,6.0,10.0,91,0.12,, +RA,0.64,VWS V13.01,2013-03-30 11:40:00,
2013-03-30 07:42:00,51.1,48.6,29.87,NNW,339,6.0,10.0,91,0.12,, +RA,0.64,VWS V13.01,2013-03-30 11:42:00,
2013-03-30 07:44:00,51.3,48.8,29.87,North,0,6.0,16.0,91,0.13,, +RA,0.65,VWS V13.01,2013-03-30 11:44:00,
2013-03-30 07:46:00,51.3,48.8,29.87,North,11,6.0,6.0,91,0.15,, +RA,0.67,VWS V13.01,2013-03-30 11:46:00,
2013-03-30 07:47:00,51.3,48.8,29.87,North,11,0.0,6.0,91,0.15,, +RA,0.67,VWS V13.01,2013-03-30 11:47:00,
2013-03-30 07:49:00,51.1,48.6,29.87,NNE,17,0.0,0.0,91,0.16,,,0.68,VWS V13.01,2013-03-30 11:49:00,
2013-03-30 07:52:00,51.3,48.8,29.87,NE,38,0.0,0.0,91,0.18,,,0.70,VWS V13.01,2013-03-30 11:52:00,
2013-03-30 07:54:00,51.1,48.6,29.87,NE,38,0.0,0.0,91,0.19,,,0.72,VWS V13.01,2013-03-30 11:54:00,
2013-03-30 07:57:00,51.1,48.6,29.87,NE,38,0.0,0.0,91,0.21,,,0.73,VWS V13.01,2013-03-30 11:57:00,
2013-03-30 07:59:00,51.1,48.6,29.87,NE,47,0.0,0.0,91,0.22,,,0.74,VWS V13.01,2013-03-30 11:59:00,
2013-03-30 08:00:00,51.1,48.6,29.87,NE,47,0.0,0.0,91,0.22,,,0.74,VWS V13.01,2013-03-30 12:00:00,
2013-03-30 08:03:00,51.0,48.5,29.85,NE,47,0.0,0.0,91,0.21,,,0.76,VWS V13.01,2013-03-30 12:03:00,
2013-03-30 08:05:00,50.8,48.3,29.85,NE,47,0.0,0.0,91,0.21,,,0.76,VWS V13.01,2013-03-30 12:05:00,
2013-03-30 08:08:00,50.8,48.6,29.85,NNE,30,0.0,0.0,92,0.23,,,0.78,VWS V13.01,2013-03-30 12:08:00,
2013-03-30 08:09:00,50.8,48.6,29.85,NNE,28,0.0,0.0,92,0.23,,,0.78,VWS V13.01,2013-03-30 12:09:00,
2013-03-30 08:10:00,51.0,48.8,29.85,NNE,30,0.0,0.0,92,0.23,,,0.78,VWS V13.01,2013-03-30 12:10:00,
2013-03-30 08:13:00,50.8,48.6,29.85,NNE,30,0.0,0.0,92,0.24,,,0.79,VWS V13.01,2013-03-30 12:13:00,
2013-03-30 08:14:00,50.8,48.6,29.85,NNE,28,0.0,0.0,92,0.24,,,0.80,VWS V13.01,2013-03-30 12:14:00,
2013-03-30 08:15:00,50.7,48.5,29.85,NNE,28,0.0,0.0,92,0.25,,,0.80,VWS V13.01,2013-03-30 12:15:00,
2013-03-30 08:17:00,50.7,48.5,29.87,NNE,28,0.0,0.0,92,0.25,,,0.80,VWS V13.01,2013-03-30 12:17:00,
2013-03-30 08:19:00,50.8,48.6,29.87,NNE,28,0.0,0.0,92,0.25,,,0.80,VWS V13.01,2013-03-30 12:19:00,
2013-03-30 08:20:00,50.7,48.5,29.87,NNE,30,0.0,0.0,92,0.25,,,0.80,VWS V13.01,2013-03-30 12:20:00,
2013-03-30 08:23:00,50.8,48.6,29.87,East,93,12.0,12.0,92,0.25,,,0.80,VWS V13.01,2013-03-30 12:23:00,
2013-03-30 08:24:00,50.7,48.5,29.87,ESE,102,4.0,12.0,92,0.25,,,0.80,VWS V13.01,2013-03-30 12:24:00,
2013-03-30 08:25:00,50.7,48.5,29.87,East,100,0.0,12.0,92,0.25,,,0.80,VWS V13.01,2013-03-30 12:25:00,
2013-03-30 08:26:00,50.8,48.6,29.87,ESE,102,2.0,10.0,92,0.25,,,0.80,VWS V13.01,2013-03-30 12:26:00,
2013-03-30 08:28:00,50.7,48.5,29.87,ESE,103,0.0,8.0,92,0.25,,,0.80,VWS V13.01,2013-03-30 12:28:00,
2013-03-30 08:29:00,50.7,48.5,29.87,ESE,103,0.0,2.0,92,0.25,,,0.80,VWS V13.01,2013-03-30 12:29:00,
2013-03-30 08:30:00,50.7,48.5,29.87,ESE,103,0.0,0.0,92,0.25,,,0.80,VWS V13.01,2013-03-30 12:30:00,
2013-03-30 08:31:00,50.7,48.5,29.85,ESE,103,0.0,0.0,92,0.25,,,0.80,VWS V13.01,2013-03-30 12:31:00,
2013-03-30 08:33:00,50.7,48.5,29.85,ESE,103,0.0,0.0,92,0.21,,,0.80,VWS V13.01,2013-03-30 12:33:00,
2013-03-30 08:34:00,50.7,48.5,29.85,ESE,104,0.0,0.0,92,0.21,,,0.80,VWS V13.01,2013-03-30 12:34:00,
2013-03-30 08:35:00,50.7,48.5,29.85,ESE,103,0.0,0.0,92,0.21,,,0.80,VWS V13.01,2013-03-30 12:35:00,
2013-03-30 08:37:00,50.5,48.3,29.85,ESE,103,0.0,0.0,92,0.21,,,0.80,VWS V13.01,2013-03-30 12:37:00,
2013-03-30 08:38:00,50.8,48.6,29.85,South,171,6.0,10.0,92,0.21,,,0.80,VWS V13.01,2013-03-30 12:38:00,
2013-03-30 08:39:00,50.8,48.6,29.85,South,171,0.0,10.0,92,0.21,,,0.80,VWS V13.01,2013-03-30 12:39:00,
2013-03-30 08:41:00,50.5,48.3,29.85,South,171,0.0,0.0,92,0.21,,,0.80,VWS V13.01,2013-03-30 12:41:00,
2013-03-30 08:42:00,50.5,48.3,29.85,South,171,0.0,0.0,92,0.21,,,0.80,VWS V13.01,2013-03-30 12:42:00,
2013-03-30 08:44:00,50.7,48.5,29.85,East,89,0.0,0.0,92,0.21,,,0.80,VWS V13.01,2013-03-30 12:44:00,
2013-03-30 08:46:00,50.7,48.5,29.85,East,89,0.0,0.0,92,0.21,,,0.80,VWS V13.01,2013-03-30 12:46:00,
2013-03-30 08:47:00,50.5,48.3,29.85,East,89,0.0,0.0,92,0.21,,-RA,0.80,VWS V13.01,2013-03-30 12:47:00,
2013-03-30 08:50:00,50.7,48.8,29.85,East,86,0.0,0.0,93,0.21,,-RA,0.80,VWS V13.01,2013-03-30 12:50:00,
2013-03-30 08:51:00,50.5,48.6,29.85,East,86,0.0,0.0,93,0.21,,-RA,0.80,VWS V13.01,2013-03-30 12:51:00,
2013-03-30 08:53:00,50.7,48.8,29.85,East,99,0.0,0.0,93,0.21,,-RA,0.80,VWS V13.01,2013-03-30 12:53:00,
2013-03-30 08:55:00,50.7,48.8,29.85,South,185,0.0,12.0,93,0.22,,-RA,0.81,VWS V13.01,2013-03-30 12:55:00,
2013-03-30 08:56:00,50.7,48.8,29.85,South,185,0.0,4.0,93,0.22,,-RA,0.81,VWS V13.01,2013-03-30 12:56:00,
2013-03-30 08:58:00,50.7,48.8,29.85,SSE,162,4.0,14.0,93,0.22,,-RA,0.81,VWS V13.01,2013-03-30 12:58:00,
2013-03-30 09:00:00,50.8,48.8,29.85,SSE,162,0.0,2.0,93,0.22,,-RA,0.81,VWS V13.01,2013-03-30 13:00:00,
2013-03-30 09:01:00,50.7,48.8,29.85,SSE,161,0.0,4.0,93,0.22,,-RA,0.81,VWS V13.01,2013-03-30 13:01:00,
2013-03-30 09:03:00,50.5,48.6,29.85,SSE,162,0.0,0.0,93,0.06,,-RA,0.82,VWS V13.01,2013-03-30 13:03:00,
2013-03-30 09:05:00,50.7,48.8,29.85,SSE,162,2.0,4.0,93,0.07,,-RA,0.82,VWS V13.01,2013-03-30 13:05:00,
2013-03-30 09:07:00,50.5,48.6,29.85,SSE,161,0.0,0.0,93,0.07,,-RA,0.83,VWS V13.01,2013-03-30 13:07:00,
2013-03-30 09:08:00,50.8,48.8,29.85,SSE,162,0.0,0.0,93,0.08,,-RA,0.83,VWS V13.01,2013-03-30 13:08:00,
2013-03-30 09:10:00,50.7,48.8,29.85,SSE,161,0.0,0.0,93,0.08,,-RA,0.83,VWS V13.01,2013-03-30 13:10:00,
2013-03-30 09:11:00,50.7,48.8,29.85,SSE,162,0.0,0.0,93,0.08,,-RA,0.84,VWS V13.01,2013-03-30 13:11:00,
2013-03-30 09:12:00,50.5,48.6,29.85,SSE,161,0.0,0.0,93,0.09,,-RA,0.84,VWS V13.01,2013-03-30 13:12:00,
2013-03-30 09:13:00,50.5,48.6,29.85,SSE,162,0.0,0.0,93,0.09,,-RA,0.84,VWS V13.01,2013-03-30 13:13:00,
2013-03-30 09:16:00,50.7,48.8,29.86,SSE,162,0.0,0.0,93,0.10,,-RA,0.85,VWS V13.01,2013-03-30 13:16:00,
2013-03-30 09:17:00,50.7,48.8,29.86,SSE,161,0.0,0.0,93,0.10,,-RA,0.85,VWS V13.01,2013-03-30 13:17:00,
2013-03-30 09:18:00,50.5,48.6,29.86,SSE,162,0.0,0.0,93,0.10,,-RA,0.86,VWS V13.01,2013-03-30 13:18:00,
2013-03-30 09:21:00,50.5,48.6,29.86,SSE,161,0.0,0.0,93,0.12,,-RA,0.87,VWS V13.01,2013-03-30 13:21:00,
2013-03-30 09:22:00,50.7,48.8,29.86,SSE,162,0.0,0.0,93,0.12,,-RA,0.87,VWS V13.01,2013-03-30 13:22:00,
2013-03-30 09:23:00,50.7,48.8,29.86,SSE,161,0.0,0.0,93,0.12,,-RA,0.87,VWS V13.01,2013-03-30 13:23:00,
2013-03-30 09:24:00,50.5,48.6,29.86,SSE,161,4.0,4.0,93,0.12,,-RA,0.87,VWS V13.01,2013-03-30 13:24:00,
2013-03-30 09:27:00,50.5,48.6,29.86,SSE,161,0.0,0.0,93,0.13,,-RA,0.88,VWS V13.01,2013-03-30 13:27:00,
2013-03-30 09:28:00,50.8,48.8,29.86,SSE,162,0.0,0.0,93,0.14,,-RA,0.89,VWS V13.01,2013-03-30 13:28:00,
2013-03-30 09:29:00,50.8,48.8,29.86,SSE,162,0.0,0.0,93,0.14,,-RA,0.89,VWS V13.01,2013-03-30 13:29:00,
2013-03-30 09:30:00,50.7,48.8,29.86,SSE,161,0.0,0.0,93,0.15,,SCT055,0.90,VWS V14.01,2013-03-30 13:30:00,
2013-03-30 09:32:00,50.5,48.6,29.86,SSE,161,0.0,0.0,93,0.15,,-RA,0.90,VWS V13.01,2013-03-30 13:32:00,
2013-03-30 09:33:00,50.8,48.8,29.86,SSE,162,0.0,0.0,93,0.10,,-RA,0.90,VWS V13.01,2013-03-30 13:33:00,
2013-03-30 09:35:00,50.7,48.8,29.86,SSE,161,0.0,0.0,93,0.11,,-RA,0.91,VWS V13.01,2013-03-30 13:35:00,
2013-03-30 09:37:00,50.7,48.8,29.86,SSE,161,0.0,0.0,93,0.11,,-RA,0.91,VWS V13.01,2013-03-30 13:37:00,
2013-03-30 09:38:00,50.8,48.8,29.86,SSE,162,0.0,0.0,93,0.12,,-RA,0.92,VWS V13.01,2013-03-30 13:38:00,
2013-03-30 09:39:00,50.8,48.8,29.86,SSE,162,0.0,0.0,93,0.12,,-RA,0.92,VWS V13.01,2013-03-30 13:39:00,
2013-03-30 09:40:00,50.5,48.6,29.86,SSE,162,0.0,0.0,93,0.12,,-RA,0.92,VWS V13.01,2013-03-30 13:40:00,
2013-03-30 09:42:00,50.7,48.8,29.86,SSE,162,0.0,0.0,93,0.12,,-RA,0.92,VWS V13.01,2013-03-30 13:42:00,
2013-03-30 09:44:00,50.7,48.8,29.86,SSE,162,0.0,0.0,93,0.12,,-RA,0.92,VWS V13.01,2013-03-30 13:44:00,
2013-03-30 09:46:00,50.7,48.8,29.86,SSE,162,0.0,0.0,93,0.12,,-RA,0.92,VWS V13.01,2013-03-30 13:46:00,
2013-03-30 09:48:00,50.7,48.8,29.86,SSE,162,0.0,0.0,93,0.12,,-RA,0.92,VWS V13.01,2013-03-30 13:48:00,
2013-03-30 09:49:00,50.7,48.8,29.86,SSE,162,0.0,0.0,93,0.12,,-RA,0.92,VWS V13.01,2013-03-30 13:49:00,
2013-03-30 09:50:00,50.7,48.8,29.86,SSE,162,0.0,0.0,93,0.12,,-RA,0.92,VWS V13.01,2013-03-30 13:50:00,
2013-03-30 09:51:00,50.7,48.8,29.86,SSE,161,0.0,0.0,93,0.12,,-RA,0.92,VWS V13.01,2013-03-30 13:51:00,
2013-03-30 09:53:00,50.5,48.6,29.86,SSE,162,0.0,0.0,93,0.12,,-RA,0.92,VWS V13.01,2013-03-30 13:53:00,
2013-03-30 09:54:00,50.7,48.8,29.86,SSE,161,0.0,0.0,93,0.12,,-RA,0.92,VWS V13.01,2013-03-30 13:54:00,
2013-03-30 09:55:00,50.7,48.8,29.86,SSE,162,0.0,0.0,93,0.12,,-RA,0.92,VWS V13.01,2013-03-30 13:55:00,
2013-03-30 09:57:00,50.7,48.8,29.86,SSE,162,0.0,0.0,93,0.12,,-RA,0.92,VWS V13.01,2013-03-30 13:57:00,
2013-03-30 09:58:00,50.7,48.8,29.86,SSE,162,0.0,0.0,93,0.12,,-RA,0.92,VWS V13.01,2013-03-30 13:58:00,
2013-03-30 09:59:00,50.8,48.8,29.86,SSE,162,0.0,0.0,93,0.12,,-RA,0.92,VWS V13.01,2013-03-30 13:59:00,
2013-03-30 10:00:00,50.5,48.6,29.86,SSE,162,0.0,0.0,93,0.12,,-RA,0.92,VWS V13.01,2013-03-30 14:00:00,
2013-03-30 10:02:00,50.7,48.8,29.86,SSE,161,0.0,0.0,93,0.12,,-RA,0.92,VWS V13.01,2013-03-30 14:02:00,
2013-03-30 10:03:00,50.7,48.8,29.86,SSE,161,0.0,0.0,93,0.11,,-RA,0.92,VWS V13.01,2013-03-30 14:03:00,
2013-03-30 10:04:00,50.8,48.8,29.86,SSE,162,0.0,0.0,93,0.11,,-RA,0.92,VWS V13.01,2013-03-30 14:04:00,
2013-03-30 10:05:00,50.8,48.8,29.86,SSE,161,0.0,0.0,93,0.11,,-RA,0.92,VWS V13.01,2013-03-30 14:05:00,
2013-03-30 10:08:00,50.8,48.8,29.86,SSE,162,0.0,0.0,93,0.11,,-RA,0.92,VWS V13.01,2013-03-30 14:08:00,
2013-03-30 10:09:00,50.8,48.8,29.86,SSE,162,0.0,0.0,93,0.11,,-RA,0.92,VWS V13.01,2013-03-30 14:09:00,
2013-03-30 10:11:00,50.7,48.8,29.86,SSE,162,0.0,0.0,93,0.11,,-RA,0.92,VWS V13.01,2013-03-30 14:11:00,
2013-03-30 10:13:00,50.8,48.8,29.86,SSE,162,0.0,0.0,93,0.11,,-RA,0.92,VWS V13.01,2013-03-30 14:13:00,
2013-03-30 10:14:00,51.0,49.0,29.86,SSE,162,0.0,0.0,93,0.11,,-RA,0.92,VWS V13.01,2013-03-30 14:14:00,
2013-03-30 10:16:00,51.0,49.0,29.86,SSE,162,0.0,0.0,93,0.11,,-RA,0.92,VWS V13.01,2013-03-30 14:16:00,
2013-03-30 10:18:00,51.1,49.4,29.86,SSE,162,0.0,0.0,94,0.11,,-RA,0.92,VWS V13.01,2013-03-30 14:18:00,
2013-03-30 10:20:00,51.4,49.7,29.86,SSE,162,0.0,0.0,94,0.11,,-RA,0.92,VWS V13.01,2013-03-30 14:20:00,
2013-03-30 10:22:00,51.3,49.6,29.86,SSE,162,0.0,0.0,94,0.11,,-RA,0.92,VWS V13.01,2013-03-30 14:22:00,
2013-03-30 10:23:00,51.4,49.7,29.86,SSE,161,0.0,0.0,94,0.11,,-RA,0.92,VWS V13.01,2013-03-30 14:23:00,
2013-03-30 10:25:00,51.7,50.0,29.86,SSE,162,0.0,0.0,94,0.11,,-RA,0.92,VWS V13.01,2013-03-30 14:25:00,
2013-03-30 10:27:00,51.7,50.0,29.86,SSE,162,0.0,0.0,94,0.11,,-RA,0.92,VWS V13.01,2013-03-30 14:27:00,
2013-03-30 10:28:00,51.9,50.2,29.86,SSE,161,0.0,0.0,94,0.11,,-RA,0.92,VWS V13.01,2013-03-30 14:28:00,
2013-03-30 10:30:00,52.2,50.5,29.86,SSE,162,0.0,0.0,94,0.11,,SCT055,0.92,VWS V14.01,2013-03-30 14:30:00,
2013-03-30 10:31:00,51.9,50.2,29.86,SSE,161,0.0,0.0,94,0.11,,-RA,0.92,VWS V13.01,2013-03-30 14:31:00,
2013-03-30 10:32:00,52.3,50.6,29.86,SSE,161,0.0,0.0,94,0.11,,-RA,0.92,VWS V13.01,2013-03-30 14:32:00,
2013-03-30 10:34:00,52.2,50.5,29.86,SSE,162,0.0,0.0,94,0.02,,-RA,0.92,VWS V13.01,2013-03-30 14:34:00,
2013-03-30 10:36:00,52.2,50.5,29.86,NW,316,6.0,6.0,94,0.02,,-RA,0.92,VWS V13.01,2013-03-30 14:36:00,
2013-03-30 10:37:00,52.2,50.5,29.86,NW,306,0.0,6.0,94,0.02,,,0.92,VWS V13.01,2013-03-30 14:37:00,
2013-03-30 10:38:00,52.3,50.6,29.86,NW,308,0.0,6.0,94,0.02,,,0.92,VWS V13.01,2013-03-30 14:38:00,
2013-03-30 10:39:00,52.3,50.6,29.86,NW,308,0.0,0.0,94,0.02,,,0.92,VWS V13.01,2013-03-30 14:39:00,
2013-03-30 10:41:00,52.3,50.6,29.86,NW,306,0.0,0.0,94,0.02,,,0.92,VWS V13.01,2013-03-30 14:41:00,
2013-03-30 10:42:00,52.3,50.6,29.86,NW,306,0.0,0.0,94,0.02,,,0.92,VWS V13.01,2013-03-30 14:42:00,
2013-03-30 10:43:00,52.6,50.9,29.86,NW,306,0.0,0.0,94,0.02,,,0.92,VWS V13.01,2013-03-30 14:43:00,
2013-03-30 10:45:00,52.3,50.6,29.86,NW,306,0.0,0.0,94,0.02,,,0.92,VWS V13.01,2013-03-30 14:45:00,
2013-03-30 10:46:00,52.5,50.8,29.86,NW,306,0.0,0.0,94,0.02,,,0.92,VWS V13.01,2013-03-30 14:46:00,
2013-03-30 10:48:00,52.5,50.8,29.86,NW,308,0.0,0.0,94,0.02,,,0.92,VWS V13.01,2013-03-30 14:48:00,
2013-03-30 10:50:00,52.5,50.8,29.86,NW,308,4.0,6.0,94,0.02,,,0.92,VWS V13.01,2013-03-30 14:50:00,
2013-03-30 10:51:00,52.5,50.8,29.86,NW,306,0.0,6.0,94,0.02,,,0.92,VWS V13.01,2013-03-30 14:51:00,
2013-03-30 10:52:00,52.3,50.6,29.86,NW,308,0.0,0.0,94,0.02,,,0.92,VWS V13.01,2013-03-30 14:52:00,
2013-03-30 10:53:00,52.6,50.9,29.86,NW,306,0.0,0.0,94,0.02,,,0.92,VWS V13.01,2013-03-30 14:53:00,
2013-03-30 10:55:00,52.3,50.6,29.86,NW,308,0.0,0.0,94,0.02,,,0.92,VWS V13.01,2013-03-30 14:55:00,
2013-03-30 10:57:00,52.6,50.9,29.86,WNW,294,0.0,0.0,94,0.02,,,0.92,VWS V13.01,2013-03-30 14:57:00,
2013-03-30 10:58:00,52.8,51.1,29.86,WNW,289,2.0,2.0,94,0.02,,,0.92,VWS V13.01,2013-03-30 14:58:00,
2013-03-30 11:00:00,52.8,51.1,29.86,West,275,0.0,6.0,94,0.02,,,0.92,VWS V13.01,2013-03-30 15:00:00,
2013-03-30 11:02:00,52.9,51.2,29.86,West,275,0.0,0.0,94,0.02,,,0.92,VWS V13.01,2013-03-30 15:02:00,
2013-03-30 11:03:00,53.1,51.4,29.86,West,275,4.0,4.0,94,0.00,,,0.92,VWS V13.01,2013-03-30 15:03:00,
2013-03-30 11:06:00,53.1,51.4,29.86,West,275,0.0,6.0,94,0.00,,,0.92,VWS V13.01,2013-03-30 15:06:00,
2013-03-30 11:07:00,53.1,51.4,29.86,West,275,0.0,6.0,94,0.00,,,0.92,VWS V13.01,2013-03-30 15:07:00,
2013-03-30 11:08:00,53.2,51.5,29.86,West,275,0.0,0.0,94,0.00,,,0.92,VWS V13.01,2013-03-30 15:08:00,
2013-03-30 11:10:00,53.3,51.6,29.86,West,275,0.0,0.0,94,0.00,,,0.92,VWS V13.01,2013-03-30 15:10:00,
2013-03-30 11:11:00,53.5,51.8,29.86,West,275,0.0,0.0,94,0.00,,,0.92,VWS V13.01,2013-03-30 15:11:00,
2013-03-30 11:13:00,53.6,51.9,29.86,West,275,0.0,0.0,94,0.00,,,0.92,VWS V13.01,2013-03-30 15:13:00,
2013-03-30 11:15:00,53.8,52.1,29.86,WNW,301,0.0,0.0,94,0.00,,,0.92,VWS V13.01,2013-03-30 15:15:00,
2013-03-30 11:17:00,53.8,52.1,29.86,WNW,296,10.0,10.0,94,0.00,,,0.92,VWS V13.01,2013-03-30 15:17:00,
2013-03-30 11:18:00,53.6,51.6,29.86,WNW,298,0.0,10.0,93,0.00,,,0.92,VWS V13.01,2013-03-30 15:18:00,
2013-03-30 11:19:00,53.6,51.6,29.86,WNW,296,0.0,6.0,93,0.00,,,0.92,VWS V13.01,2013-03-30 15:19:00,
2013-03-30 11:21:00,53.6,51.6,29.86,West,274,0.0,0.0,93,0.00,,,0.92,VWS V13.01,2013-03-30 15:21:00,
2013-03-30 11:23:00,53.6,51.6,29.86,West,274,0.0,0.0,93,0.00,,,0.92,VWS V13.01,2013-03-30 15:23:00,
2013-03-30 11:24:00,53.6,51.6,29.86,West,274,0.0,0.0,93,0.00,,,0.92,VWS V13.01,2013-03-30 15:24:00,
2013-03-30 11:27:00,53.8,51.8,29.86,West,274,0.0,0.0,93,0.00,,,0.92,VWS V13.01,2013-03-30 15:27:00,
2013-03-30 11:29:00,53.8,51.8,29.86,NW,323,2.0,10.0,93,0.00,,,0.92,VWS V13.01,2013-03-30 15:29:00,
2013-03-30 11:30:00,53.9,51.9,29.85,NW,325,0.0,0.0,93,0.00,,SCT055,0.92,VWS V14.01,2013-03-30 15:30:00,
2013-03-30 11:32:00,54.1,52.1,29.85,WNW,302,4.0,4.0,93,0.00,,,0.92,VWS V13.01,2013-03-30 15:32:00,
2013-03-30 11:34:00,54.1,52.1,29.85,NW,316,0.0,6.0,93,0.00,,,0.92,VWS V13.01,2013-03-30 15:34:00,
2013-03-30 11:38:00,54.4,52.4,29.85,WNW,287,0.0,6.0,93,0.00,,SCT047,0.92,VWS V13.01,2013-03-30 15:38:00,
2013-03-30 11:39:00,54.4,52.4,29.85,WNW,287,0.0,6.0,93,0.00,,SCT047,0.92,VWS V13.01,2013-03-30 15:39:00,
2013-03-30 11:40:00,54.5,52.5,29.85,WNW,287,0.0,6.0,93,0.00,,SCT047,0.92,VWS V13.01,2013-03-30 15:40:00,
2013-03-30 11:44:00,54.5,52.5,29.85,WNW,287,0.0,6.0,93,0.00,,SCT047,0.92,VWS V13.01,2013-03-30 15:44:00,
2013-03-30 11:45:00,54.5,52.5,29.85,WNW,287,0.0,4.0,93,0.00,,SCT047,0.92,VWS V13.01,2013-03-30 15:45:00,
2013-03-30 11:47:00,54.7,52.7,29.85,WNW,287,0.0,0.0,93,0.00,,SCT047,0.92,VWS V13.01,2013-03-30 15:47:00,
2013-03-30 11:49:00,54.8,52.5,29.85,WNW,289,0.0,4.0,92,0.00,,SCT047,0.92,VWS V13.01,2013-03-30 15:49:00,
2013-03-30 11:50:00,55.0,52.7,29.85,WNW,291,12.0,12.0,92,0.00,,SCT047,0.92,VWS V13.01,2013-03-30 15:50:00,
2013-03-30 11:52:00,55.0,52.7,29.85,WNW,296,0.0,12.0,92,0.00,,SCT047,0.92,VWS V13.01,2013-03-30 15:52:00,
2013-03-30 11:54:00,55.3,53.0,29.85,WNW,296,0.0,0.0,92,0.00,,SCT047,0.92,VWS V13.01,2013-03-30 15:54:00,
2013-03-30 11:55:00,55.3,53.0,29.85,WNW,296,0.0,0.0,92,0.00,,SCT047,0.92,VWS V13.01,2013-03-30 15:55:00,
2013-03-30 11:56:00,55.6,53.3,29.85,WNW,296,6.0,6.0,92,0.00,,SCT047,0.92,VWS V13.01,2013-03-30 15:56:00,
2013-03-30 11:57:00,55.6,53.0,29.85,WSW,237,6.0,10.0,91,0.00,,SCT047,0.92,VWS V13.01,2013-03-30 15:57:00,
2013-03-30 12:00:00,55.7,52.8,29.85,NW,306,4.0,12.0,90,0.00,,SCT047,0.92,VWS V13.01,2013-03-30 16:00:00,
2013-03-30 12:02:00,55.9,53.0,29.85,NW,306,0.0,8.0,90,0.00,,SCT047,0.92,VWS V13.01,2013-03-30 16:02:00,
2013-03-30 12:03:00,56.0,53.1,29.85,West,268,0.0,6.0,90,0.00,,SCT047,0.92,VWS V13.01,2013-03-30 16:03:00,
2013-03-30 12:05:00,56.3,53.4,29.85,NW,305,0.0,6.0,90,0.00,,SCT047,0.92,VWS V13.01,2013-03-30 16:05:00,
2013-03-30 12:07:00,56.5,53.3,29.85,WNW,299,0.0,8.0,89,0.00,,SCT047,0.92,VWS V13.01,2013-03-30 16:07:00,
2013-03-30 12:08:00,56.6,53.4,29.85,NW,320,0.0,10.0,89,0.00,,SCT047,0.92,VWS V13.01,2013-03-30 16:08:00,
2013-03-30 12:10:00,56.7,53.2,29.85,NNW,344,12.0,12.0,88,0.00,,SCT047,0.92,VWS V13.01,2013-03-30 16:10:00,
2013-03-30 12:12:00,56.9,53.4,29.85,WNW,298,6.0,12.0,88,0.00,,SCT047,0.92,VWS V13.01,2013-03-30 16:12:00,
2013-03-30 12:13:00,56.9,53.1,29.85,West,270,16.0,16.0,87,0.00,,SCT047,0.92,VWS V13.01,2013-03-30 16:13:00,
2013-03-30 12:15:00,57.2,53.1,29.85,NW,305,2.0,12.0,86,0.00,,SCT047,0.92,VWS V13.01,2013-03-30 16:15:00,
2013-03-30 12:16:00,57.2,53.1,29.85,NNW,332,12.0,12.0,86,0.00,,SCT047,0.92,VWS V13.01,2013-03-30 16:16:00,
2013-03-30 12:17:00,57.2,52.7,29.85,WNW,284,6.0,12.0,85,0.00,,SCT047,0.92,VWS V13.01,2013-03-30 16:17:00,
2013-03-30 12:18:00,57.2,52.7,29.85,WNW,284,0.0,12.0,85,0.00,,SCT047,0.92,VWS V13.01,2013-03-30 16:18:00,
2013-03-30 12:21:00,57.6,52.8,29.85,NW,305,6.0,10.0,84,0.00,,SCT047,0.92,VWS V13.01,2013-03-30 16:21:00,
2013-03-30 12:22:00,57.8,53.0,29.85,NW,322,0.0,10.0,84,0.00,,SCT047,0.92,VWS V13.01,2013-03-30 16:22:00,
2013-03-30 12:23:00,58.0,53.2,29.85,NW,323,0.0,8.0,84,0.00,,SCT047,0.92,VWS V13.01,2013-03-30 16:23:00,
2013-03-30 12:26:00,58.3,53.2,29.85,WNW,296,0.0,16.0,83,0.00,,SCT047,0.92,VWS V13.01,2013-03-30 16:26:00,
2013-03-30 12:27:00,58.4,52.9,29.85,WNW,288,0.0,12.0,82,0.00,,SCT047,0.92,VWS V13.01,2013-03-30 16:27:00,
2013-03-30 12:28:00,58.4,52.9,29.85,WNW,289,0.0,8.0,82,0.00,,SCT047,0.92,VWS V13.01,2013-03-30 16:28:00,
2013-03-30 12:30:00,58.6,52.8,29.84,NNW,335,16.0,20.0,81,0.00,,SCT055,0.92,VWS V14.01,2013-03-30 16:30:00,
2013-03-30 12:32:00,58.6,52.5,29.84,NNW,328,6.0,20.0,80,0.00,,SCT047,0.92,VWS V13.01,2013-03-30 16:32:00,
2013-03-30 12:33:00,58.7,52.9,29.84,NNW,328,10.0,20.0,81,0.00,,SCT047,0.92,VWS V13.01,2013-03-30 16:33:00,
2013-03-30 12:34:00,58.9,52.8,29.84,North,359,6.0,16.0,80,0.00,,SCT047,0.92,VWS V13.01,2013-03-30 16:34:00,
2013-03-30 12:37:00,59.2,52.7,29.84,WSW,251,0.0,14.0,79,0.00,,SCT047,0.92,VWS V13.01,2013-03-30 16:37:00,
2013-03-30 12:38:00,59.2,52.7,29.84,NNW,336,14.0,18.0,79,0.00,,BKN032,0.92,VWS V13.01,2013-03-30 16:38:00,
2013-03-30 12:39:00,59.3,52.8,29.84,WNW,299,0.0,18.0,79,0.00,,BKN032,0.92,VWS V13.01,2013-03-30 16:39:00,
2013-03-30 12:40:00,59.3,52.5,29.84,West,260,0.0,18.0,78,0.00,,BKN032,0.92,VWS V13.01,2013-03-30 16:40:00,
2013-03-30 12:43:00,59.5,52.3,29.84,West,277,16.0,20.0,77,0.00,,BKN032,0.92,VWS V13.01,2013-03-30 16:43:00,
2013-03-30 12:44:00,59.6,52.4,29.84,West,272,4.0,16.0,77,0.00,,BKN032,0.92,VWS V13.01,2013-03-30 16:44:00,
2013-03-30 12:45:00,59.6,52.4,29.84,WSW,257,14.0,14.0,77,0.00,,BKN032,0.92,VWS V13.01,2013-03-30 16:45:00,
2013-03-30 12:48:00,59.8,52.2,29.84,West,275,10.0,16.0,76,0.00,,BKN032,0.92,VWS V13.01,2013-03-30 16:48:00,
2013-03-30 12:49:00,59.9,52.3,29.84,NW,325,0.0,12.0,76,0.00,,BKN032,0.92,VWS V13.01,2013-03-30 16:49:00,
2013-03-30 12:50:00,59.9,52.0,29.84,WNW,285,6.0,12.0,75,0.00,,BKN032,0.92,VWS V13.01,2013-03-30 16:50:00,
2013-03-30 12:53:00,60.1,52.5,29.84,NW,325,14.0,14.0,76,0.00,,BKN032,0.92,VWS V13.01,2013-03-30 16:53:00,
2013-03-30 12:54:00,60.1,52.2,29.84,NW,323,6.0,14.0,75,0.00,,BKN032,0.92,VWS V13.01,2013-03-30 16:54:00,
2013-03-30 12:55:00,60.2,51.9,29.84,NW,313,2.0,16.0,74,0.00,,BKN032,0.92,VWS V13.01,2013-03-30 16:55:00,
2013-03-30 12:58:00,60.5,52.2,29.84,NW,304,8.0,20.0,74,0.00,,BKN032,0.92,VWS V13.01,2013-03-30 16:58:00,
2013-03-30 12:59:00,60.5,52.2,29.84,NW,311,16.0,24.0,74,0.00,,BKN032,0.92,VWS V13.01,2013-03-30 16:59:00,
2013-03-30 13:00:00,60.5,51.8,29.84,WNW,295,10.0,24.0,73,0.00,,BKN032,0.92,VWS V13.01,2013-03-30 17:00:00,
2013-03-30 13:01:00,60.5,51.8,29.84,West,272,12.0,20.0,73,0.00,,BKN032,0.92,VWS V13.01,2013-03-30 17:01:00,
2013-03-30 13:03:00,60.5,51.8,29.84,West,280,14.0,16.0,73,0.00,,BKN032,0.92,VWS V13.01,2013-03-30 17:03:00,
2013-03-30 13:04:00,60.5,51.8,29.84,North,0,4.0,16.0,73,0.00,,BKN032,0.92,VWS V13.01,2013-03-30 17:04:00,
2013-03-30 13:05:00,60.7,52.4,29.84,North,352,6.0,16.0,74,0.00,,BKN032,0.92,VWS V13.01,2013-03-30 17:05:00,
2013-03-30 13:06:00,60.9,52.2,29.84,NNW,332,0.0,12.0,73,0.00,,BKN032,0.92,VWS V13.01,2013-03-30 17:06:00,
2013-03-30 13:09:00,60.9,52.2,29.84,NNW,337,10.0,16.0,73,0.00,,BKN032,0.92,VWS V13.01,2013-03-30 17:09:00,
2013-03-30 13:10:00,61.0,51.9,29.84,West,263,12.0,24.0,72,0.00,,BKN032,0.92,VWS V13.01,2013-03-30 17:10:00,
2013-03-30 13:12:00,61.0,51.5,29.84,WNW,284,22.0,22.0,71,0.00,,BKN032,0.92,VWS V13.01,2013-03-30 17:12:00,
2013-03-30 13:14:00,61.0,51.9,29.84,NNW,329,10.0,24.0,72,0.00,,BKN032,0.92,VWS V13.01,2013-03-30 17:14:00,
2013-03-30 13:15:00,61.0,51.5,29.84,NNW,330,6.0,14.0,71,0.00,,BKN032,0.92,VWS V13.01,2013-03-30 17:15:00,
2013-03-30 13:17:00,61.0,51.5,29.84,WNW,302,8.0,12.0,71,0.00,,BKN032,0.92,VWS V13.01,2013-03-30 17:17:00,
2013-03-30 13:19:00,61.0,51.9,29.84,West,278,4.0,14.0,72,0.00,,BKN032,0.92,VWS V13.01,2013-03-30 17:19:00,
2013-03-30 13:21:00,61.2,52.1,29.84,NW,308,8.0,16.0,72,0.00,,BKN032,0.92,VWS V13.01,2013-03-30 17:21:00,
2013-03-30 13:24:00,61.3,52.2,29.84,West,267,0.0,2.0,72,0.00,,BKN032,0.92,VWS V13.01,2013-03-30 17:24:00,
2013-03-30 13:25:00,61.5,52.0,29.84,WSW,248,16.0,16.0,71,0.00,,BKN032,0.92,VWS V13.01,2013-03-30 17:25:00,
2013-03-30 13:27:00,61.6,51.7,29.84,NW,309,8.0,16.0,70,0.00,,BKN032,0.92,VWS V13.01,2013-03-30 17:27:00,
2013-03-30 13:29:00,62.0,52.1,29.84,West,268,6.0,16.0,70,0.00,,BKN032,0.92,VWS V13.01,2013-03-30 17:29:00,
2013-03-30 13:30:00,62.0,52.1,29.84,West,281,10.0,16.0,70,0.00,,BKN032,0.92,VWS V13.01,2013-03-30 17:30:00,
2013-03-30 13:31:00,62.0,52.1,29.83,WSW,257,4.0,14.0,70,0.00,,BKN032,0.92,VWS V13.01,2013-03-30 17:31:00,
2013-03-30 13:32:00,62.0,51.7,29.83,NW,312,6.0,16.0,69,0.00,,BKN032,0.92,VWS V13.01,2013-03-30 17:32:00,
2013-03-30 13:34:00,62.0,51.7,29.83,West,277,6.0,16.0,69,0.00,,BKN032,0.92,VWS V13.01,2013-03-30 17:34:00,
2013-03-30 13:35:00,62.0,51.7,29.83,West,268,10.0,16.0,69,0.00,,BKN032,0.92,VWS V13.01,2013-03-30 17:35:00,
2013-03-30 13:36:00,62.0,51.3,29.83,NW,322,14.0,16.0,68,0.00,,BKN032,0.92,VWS V13.01,2013-03-30 17:36:00,
2013-03-30 13:37:00,61.8,51.1,29.83,NNW,332,14.0,16.0,68,0.00,,BKN028,0.92,VWS V13.01,2013-03-30 17:37:00,
2013-03-30 13:40:00,61.8,50.7,29.83,NNW,330,6.0,16.0,67,0.00,,BKN028,0.92,VWS V13.01,2013-03-30 17:40:00,
2013-03-30 13:41:00,61.8,51.1,29.83,NW,323,2.0,10.0,68,0.00,,BKN028,0.92,VWS V13.01,2013-03-30 17:41:00,
2013-03-30 13:43:00,61.8,51.1,29.83,NNW,332,8.0,12.0,68,0.00,,BKN028,0.92,VWS V13.01,2013-03-30 17:43:00,
2013-03-30 13:45:00,62.0,51.3,29.83,WSW,257,6.0,12.0,68,0.00,,BKN028,0.92,VWS V13.01,2013-03-30 17:45:00,
2013-03-30 13:46:00,62.1,51.4,29.83,WSW,250,4.0,16.0,68,0.00,,BKN028,0.92,VWS V13.01,2013-03-30 17:46:00,
2013-03-30 13:48:00,62.3,51.2,29.83,WNW,298,8.0,16.0,67,0.00,,SCT029,0.92,VWS V13.01,2013-03-30 17:48:00,
2013-03-30 13:50:00,62.4,51.3,29.83,NW,318,6.0,16.0,67,0.00,,SCT029,0.92,VWS V13.01,2013-03-30 17:50:00,
2013-03-30 13:51:00,62.4,51.3,29.83,NNW,333,10.0,14.0,67,0.00,,SCT029,0.92,VWS V13.01,2013-03-30 17:51:00,
2013-03-30 13:55:00,62.7,51.6,29.83,NNW,337,12.0,12.0,67,0.00,,SCT029,0.92,VWS V13.01,2013-03-30 17:55:00,
2013-03-30 13:56:00,62.7,50.8,29.83,NW,318,12.0,20.0,65,0.00,,SCT029,0.92,VWS V13.01,2013-03-30 17:56:00,
2013-03-30 13:57:00,62.7,50.4,29.83,NNW,332,4.0,14.0,64,0.00,,SCT029,0.92,VWS V13.01,2013-03-30 17:57:00,
2013-03-30 14:00:00,62.9,50.5,29.83,NW,322,4.0,4.0,64,0.00,,SCT029,0.92,VWS V13.01,2013-03-30 18:00:00,
2013-03-30 14:01:00,62.9,50.5,29.83,NNW,335,4.0,10.0,64,0.00,,SCT029,0.92,VWS V13.01,2013-03-30 18:01:00,
2013-03-30 14:02:00,63.2,50.8,29.83,NW,308,6.0,16.0,64,0.00,,SCT029,0.92,VWS V13.01,2013-03-30 18:02:00,
2013-03-30 14:03:00,63.2,50.4,29.83,NW,319,16.0,16.0,63,0.00,,SCT029,0.92,VWS V13.01,2013-03-30 18:03:00,
2013-03-30 14:05:00,63.4,50.6,29.83,WNW,292,0.0,24.0,63,0.00,,SCT029,0.92,VWS V13.01,2013-03-30 18:05:00,
2013-03-30 14:06:00,63.4,50.6,29.83,West,275,6.0,14.0,63,0.00,,SCT029,0.92,VWS V13.01,2013-03-30 18:06:00,
2013-03-30 14:07:00,63.4,50.2,29.83,North,353,12.0,20.0,62,0.00,,SCT029,0.92,VWS V13.01,2013-03-30 18:07:00,
2013-03-30 14:08:00,63.4,50.2,29.83,NW,322,12.0,20.0,62,0.00,,SCT029,0.92,VWS V13.01,2013-03-30 18:08:00,
2013-03-30 14:10:00,63.7,51.3,29.83,NW,306,0.0,8.0,64,0.00,,SCT029,0.92,VWS V13.01,2013-03-30 18:10:00,
2013-03-30 14:12:00,64.0,51.2,29.83,NW,319,4.0,6.0,63,0.00,,SCT029,0.92,VWS V13.01,2013-03-30 18:12:00,
2013-03-30 14:13:00,64.0,51.2,29.83,WNW,294,20.0,20.0,63,0.00,,SCT029,0.92,VWS V13.01,2013-03-30 18:13:00,
2013-03-30 14:14:00,64.0,50.7,29.83,NW,312,12.0,20.0,62,0.00,,SCT029,0.92,VWS V13.01,2013-03-30 18:14:00,
2013-03-30 14:17:00,64.0,51.2,29.83,NNW,330,16.0,22.0,63,0.00,,SCT029,0.92,VWS V13.01,2013-03-30 18:17:00,
2013-03-30 14:18:00,64.0,51.2,29.83,NNE,14,10.0,22.0,63,0.00,,SCT029,0.92,VWS V13.01,2013-03-30 18:18:00,
2013-03-30 14:20:00,64.0,50.7,29.83,North,350,10.0,16.0,62,0.00,,SCT029,0.92,VWS V13.01,2013-03-30 18:20:00,
2013-03-30 14:22:00,64.2,50.5,29.83,WNW,288,6.0,16.0,61,0.00,,SCT029,0.92,VWS V13.01,2013-03-30 18:22:00,
2013-03-30 14:23:00,64.2,50.0,29.83,North,4,6.0,22.0,60,0.00,,SCT029,0.92,VWS V13.01,2013-03-30 18:23:00,
2013-03-30 14:25:00,64.2,50.0,29.83,NW,305,2.0,22.0,60,0.00,,SCT029,0.92,VWS V13.01,2013-03-30 18:25:00,
2013-03-30 14:27:00,64.5,50.8,29.83,NNE,30,0.0,12.0,61,0.00,,SCT029,0.92,VWS V13.01,2013-03-30 18:27:00,
2013-03-30 14:28:00,64.7,51.0,29.83,NW,313,4.0,12.0,61,0.00,,SCT029,0.92,VWS V13.01,2013-03-30 18:28:00,
2013-03-30 14:29:00,64.7,50.5,29.83,NNW,340,12.0,14.0,60,0.00,,SCT029,0.92,VWS V13.01,2013-03-30 18:29:00,
2013-03-30 14:30:00,64.7,50.1,29.83,WNW,289,14.0,24.0,59,0.00,,SCT055,0.92,VWS V14.01,2013-03-30 18:30:00,
2013-03-30 14:31:00,64.7,50.1,29.83,WNW,289,14.0,24.0,59,0.00,,SCT029,0.92,VWS V13.01,2013-03-30 18:31:00,
2013-03-30 14:32:00,64.7,49.6,29.83,NNW,330,8.0,24.0,58,0.00,,SCT029,0.92,VWS V13.01,2013-03-30 18:32:00,
2013-03-30 14:33:00,64.7,50.1,29.83,NNW,337,10.0,24.0,59,0.00,,SCT029,0.92,VWS V13.01,2013-03-30 18:33:00,
2013-03-30 14:34:00,64.7,50.1,29.83,North,356,0.0,14.0,59,0.00,,SCT029,0.92,VWS V13.01,2013-03-30 18:34:00,
2013-03-30 14:37:00,64.8,50.2,29.83,NNE,16,4.0,12.0,59,0.00,,SCT029,0.92,VWS V13.01,2013-03-30 18:37:00,
2013-03-30 14:38:00,65.0,50.8,29.83,NNW,328,4.0,12.0,60,0.00,,BKN027,0.92,VWS V13.01,2013-03-30 18:38:00,
2013-03-30 14:39:00,65.2,50.5,29.83,NW,312,4.0,14.0,59,0.00,,BKN027,0.92,VWS V13.01,2013-03-30 18:39:00,
2013-03-30 14:42:00,65.0,48.9,29.83,WNW,296,2.0,22.0,56,0.00,,BKN027,0.92,VWS V13.01,2013-03-30 18:42:00,
2013-03-30 14:43:00,65.0,48.9,29.83,North,7,6.0,22.0,56,0.00,,BKN027,0.92,VWS V13.01,2013-03-30 18:43:00,
2013-03-30 14:44:00,65.2,49.1,29.83,NNW,344,12.0,12.0,56,0.00,,BKN027,0.92,VWS V13.01,2013-03-30 18:44:00,
2013-03-30 14:47:00,65.3,50.2,29.82,NNE,20,10.0,12.0,58,0.00,,SCT031,0.92,VWS V13.01,2013-03-30 18:47:00,
2013-03-30 14:48:00,65.3,49.7,29.82,NNE,27,8.0,16.0,57,0.00,,SCT031,0.92,VWS V13.01,2013-03-30 18:48:00,
2013-03-30 14:49:00,65.3,50.2,29.82,NNE,27,2.0,16.0,58,0.00,,SCT031,0.92,VWS V13.01,2013-03-30 18:49:00,
2013-03-30 14:52:00,65.3,50.2,29.82,NNW,328,12.0,22.0,58,0.00,,SCT031,0.92,VWS V13.01,2013-03-30 18:52:00,
2013-03-30 14:54:00,65.2,48.6,29.82,North,0,6.0,22.0,55,0.00,,SCT031,0.92,VWS V13.01,2013-03-30 18:54:00,
2013-03-30 14:55:00,65.2,48.6,29.82,North,0,2.0,16.0,55,0.00,,SCT031,0.92,VWS V13.01,2013-03-30 18:55:00,
2013-03-30 14:58:00,65.0,49.4,29.82,WNW,291,12.0,22.0,57,0.00,,SCT031,0.92,VWS V13.01,2013-03-30 18:58:00,
2013-03-30 14:59:00,64.8,49.2,29.82,NW,326,20.0,26.0,57,0.00,,SCT031,0.92,VWS V13.01,2013-03-30 18:59:00,
2013-03-30 15:00:00,64.8,49.2,29.82,West,281,14.0,26.0,57,0.00,,SCT031,0.92,VWS V13.01,2013-03-30 19:00:00,
2013-03-30 15:03:00,64.5,48.5,29.82,West,281,10.0,18.0,56,0.00,,SCT031,0.92,VWS V13.01,2013-03-30 19:03:00,
2013-03-30 15:04:00,64.7,48.7,29.82,SW,217,0.0,12.0,56,0.00,,SCT031,0.92,VWS V13.01,2013-03-30 19:04:00,
2013-03-30 15:05:00,64.7,48.7,29.82,SW,217,0.0,12.0,56,0.00,,SCT031,0.92,VWS V13.01,2013-03-30 19:05:00,
2013-03-30 15:06:00,64.8,49.2,29.82,NNW,347,6.0,20.0,57,0.00,,SCT031,0.92,VWS V13.01,2013-03-30 19:06:00,
2013-03-30 15:08:00,65.2,48.6,29.82,NNW,337,12.0,22.0,55,0.00,,SCT031,0.92,VWS V13.01,2013-03-30 19:08:00,
2013-03-30 15:10:00,65.2,48.6,29.82,North,10,2.0,22.0,55,0.00,,SCT031,0.92,VWS V13.01,2013-03-30 19:10:00,
2013-03-30 15:11:00,65.5,48.9,29.82,North,1,4.0,16.0,55,0.00,,SCT031,0.92,VWS V13.01,2013-03-30 19:11:00,
2013-03-30 15:14:00,65.6,48.5,29.82,NNE,16,18.0,20.0,54,0.00,,SCT031,0.92,VWS V13.01,2013-03-30 19:14:00,
2013-03-30 15:15:00,65.6,47.5,29.82,NNW,328,10.0,20.0,52,0.00,,SCT031,0.92,VWS V13.01,2013-03-30 19:15:00,
2013-03-30 15:17:00,65.6,47.5,29.82,NNW,329,2.0,14.0,52,0.00,,SCT031,0.92,VWS V13.01,2013-03-30 19:17:00,
2013-03-30 15:19:00,65.6,48.0,29.82,West,271,0.0,14.0,53,0.00,,SCT031,0.92,VWS V13.01,2013-03-30 19:19:00,
2013-03-30 15:20:00,65.6,48.5,29.82,WNW,302,4.0,12.0,54,0.00,,SCT031,0.92,VWS V13.01,2013-03-30 19:20:00,
2013-03-30 15:21:00,65.8,48.2,29.82,WNW,302,2.0,12.0,53,0.00,,SCT031,0.92,VWS V13.01,2013-03-30 19:21:00,
2013-03-30 15:22:00,66.0,48.9,29.82,NW,308,6.0,12.0,54,0.00,,SCT031,0.92,VWS V13.01,2013-03-30 19:22:00,
2013-03-30 15:24:00,66.1,48.5,29.82,North,353,12.0,14.0,53,0.00,,SCT031,0.92,VWS V13.01,2013-03-30 19:24:00,
2013-03-30 15:25:00,66.1,47.5,29.82,NW,326,4.0,20.0,51,0.00,,SCT031,0.92,VWS V13.01,2013-03-30 19:25:00,
2013-03-30 15:26:00,66.1,47.5,29.82,NNW,339,4.0,20.0,51,0.00,,SCT031,0.92,VWS V13.01,2013-03-30 19:26:00,
2013-03-30 15:27:00,66.3,47.7,29.82,NW,322,4.0,20.0,51,0.00,,SCT031,0.92,VWS V13.01,2013-03-30 19:27:00,
2013-03-30 15:29:00,66.3,46.6,29.82,NW,323,16.0,22.0,49,0.00,,SCT031,0.92,VWS V13.01,2013-03-30 19:29:00,
2013-03-30 15:30:00,66.1,45.9,29.82,NW,323,8.0,20.0,48,0.00,,SCT031,0.92,VWS V13.01,2013-03-30 19:30:00,
2013-03-30 15:32:00,66.1,46.4,29.82,NW,316,4.0,12.0,49,0.00,,SCT031,0.92,VWS V13.01,2013-03-30 19:32:00,
2013-03-30 15:34:00,66.3,44.9,29.82,North,1,0.0,16.0,46,0.00,,SCT031,0.92,VWS V13.01,2013-03-30 19:34:00,
2013-03-30 15:35:00,66.3,44.9,29.82,NW,320,10.0,14.0,46,0.00,,SCT031,0.92,VWS V13.01,2013-03-30 19:35:00,
2013-03-30 15:37:00,66.6,45.2,29.82,NNW,342,0.0,14.0,46,0.00,,SCT031,0.92,VWS V13.01,2013-03-30 19:37:00,
2013-03-30 15:40:00,66.8,45.9,29.82,North,4,18.0,18.0,47,0.00,,SCT031,0.92,VWS V13.01,2013-03-30 19:40:00,
2013-03-30 15:41:00,66.8,45.9,29.82,North,11,4.0,20.0,47,0.00,,SCT031,0.92,VWS V13.01,2013-03-30 19:41:00,
2013-03-30 15:42:00,66.9,44.9,29.82,NNW,336,8.0,24.0,45,0.00,,SCT031,0.92,VWS V13.01,2013-03-30 19:42:00,
2013-03-30 15:43:00,66.9,44.3,29.82,North,359,12.0,24.0,44,0.00,,SCT031,0.92,VWS V13.01,2013-03-30 19:43:00,
2013-03-30 15:45:00,67.1,43.9,29.82,NNW,346,12.0,26.0,43,0.00,,SCT031,0.92,VWS V13.01,2013-03-30 19:45:00,
2013-03-30 15:46:00,67.1,43.9,29.81,North,4,6.0,18.0,43,0.00,,SCT031,0.92,VWS V13.01,2013-03-30 19:46:00,
2013-03-30 15:47:00,67.1,43.9,29.81,WNW,298,0.0,12.0,43,0.00,,SCT031,0.92,VWS V13.01,2013-03-30 19:47:00,
2013-03-30 15:48:00,67.3,44.1,29.81,WNW,298,0.0,10.0,43,0.00,,SCT031,0.92,VWS V13.01,2013-03-30 19:48:00,
2013-03-30 15:51:00,67.8,43.9,29.81,North,359,14.0,20.0,42,0.00,,SCT031,0.92,VWS V13.01,2013-03-30 19:51:00,
2013-03-30 15:52:00,67.8,42.6,29.81,NNW,347,12.0,22.0,40,0.00,,SCT031,0.92,VWS V13.01,2013-03-30 19:52:00,
2013-03-30 15:54:00,67.9,43.4,29.81,NE,44,12.0,22.0,41,0.00,,SCT031,0.92,VWS V13.01,2013-03-30 19:54:00,
2013-03-30 15:57:00,68.1,44.8,29.81,NNW,339,12.0,14.0,43,0.00,,SCT031,0.92,VWS V13.01,2013-03-30 19:57:00,
2013-03-30 15:58:00,68.1,45.4,29.81,NNW,330,4.0,20.0,44,0.00,,SCT031,0.92,VWS V13.01,2013-03-30 19:58:00,
2013-03-30 15:59:00,68.3,46.2,29.81,North,350,10.0,22.0,45,0.00,,SCT031,0.92,VWS V13.01,2013-03-30 19:59:00,
2013-03-30 16:00:00,68.1,46.6,29.81,NNW,346,6.0,14.0,46,0.00,,SCT055,0.92,VWS V14.01,2013-03-30 20:00:00,
2013-03-30 16:02:00,68.1,46.6,29.81,NNW,337,12.0,14.0,46,0.00,,SCT031,0.92,VWS V13.01,2013-03-30 20:02:00,
2013-03-30 16:03:00,67.9,45.8,29.81,NNW,328,6.0,12.0,45,0.00,,SCT031,0.92,VWS V13.01,2013-03-30 20:03:00,
2013-03-30 16:05:00,67.9,45.8,29.81,NNW,330,10.0,20.0,45,0.00,,SCT031,0.92,VWS V13.01,2013-03-30 20:05:00,
2013-03-30 16:07:00,67.8,45.1,29.81,North,356,12.0,12.0,44,0.00,,SCT031,0.92,VWS V13.01,2013-03-30 20:07:00,
2013-03-30 16:08:00,67.6,44.3,29.81,NNW,347,12.0,22.0,43,0.00,,SCT031,0.92,VWS V13.01,2013-03-30 20:08:00,
2013-03-30 16:10:00,67.6,44.9,29.81,NNE,21,8.0,16.0,44,0.00,,SCT031,0.92,VWS V13.01,2013-03-30 20:10:00,
2013-03-30 16:12:00,67.6,44.9,29.81,NE,51,14.0,22.0,44,0.00,,SCT031,0.92,VWS V13.01,2013-03-30 20:12:00,
2013-03-30 16:14:00,67.6,45.5,29.81,North,359,8.0,14.0,45,0.00,,SCT031,0.92,VWS V13.01,2013-03-30 20:14:00,
2013-03-30 16:15:00,67.4,44.8,29.81,North,0,8.0,14.0,44,0.00,,SCT031,0.92,VWS V13.01,2013-03-30 20:15:00,
2013-03-30 16:17:00,67.4,43.5,29.81,North,356,16.0,22.0,42,0.00,,SCT031,0.92,VWS V13.01,2013-03-30 20:17:00,
2013-03-30 16:19:00,67.4,43.5,29.81,NNW,337,6.0,24.0,42,0.00,,SCT031,0.92,VWS V13.01,2013-03-30 20:19:00,
2013-03-30 16:21:00,67.3,42.2,29.81,WNW,298,12.0,22.0,40,0.00,,SCT031,0.92,VWS V13.01,2013-03-30 20:21:00,
2013-03-30 16:22:00,67.3,42.2,29.81,North,356,8.0,24.0,40,0.00,,SCT031,0.92,VWS V13.01,2013-03-30 20:22:00,
2013-03-30 16:24:00,67.1,42.0,29.81,NE,44,4.0,16.0,40,0.00,,SCT031,0.92,VWS V13.01,2013-03-30 20:24:00,
2013-03-30 16:27:00,67.3,42.8,29.81,NNW,332,0.0,12.0,41,0.00,,SCT031,0.92,VWS V13.01,2013-03-30 20:27:00,
2013-03-30 16:28:00,67.3,43.5,29.81,NNW,332,4.0,12.0,42,0.00,,SCT031,0.92,VWS V13.01,2013-03-30 20:28:00,
2013-03-30 16:29:00,67.3,43.5,29.81,NW,326,12.0,14.0,42,0.00,,SCT031,0.92,VWS V13.01,2013-03-30 20:29:00,
2013-03-30 16:30:00,67.3,44.1,29.81,North,0,14.0,14.0,43,0.00,,SCT031,0.92,VWS V13.01,2013-03-30 20:30:00,
2013-03-30 16:33:00,67.3,41.5,29.81,North,7,6.0,22.0,39,0.00,,SCT031,0.92,VWS V13.01,2013-03-30 20:33:00,
2013-03-30 16:34:00,67.3,40.8,29.81,North,353,14.0,22.0,38,0.00,,SCT031,0.92,VWS V13.01,2013-03-30 20:34:00,
2013-03-30 16:35:00,67.3,41.5,29.81,NW,306,16.0,22.0,39,0.00,,SCT031,0.92,VWS V13.01,2013-03-30 20:35:00,
2013-03-30 16:38:00,67.1,41.3,29.81,ESE,106,10.0,14.0,39,0.00,,FEW049,0.92,VWS V13.01,2013-03-30 20:38:00,
2013-03-30 16:39:00,67.1,40.7,29.81,NE,45,8.0,18.0,38,0.00,,FEW049,0.92,VWS V13.01,2013-03-30 20:39:00,
2013-03-30 16:42:00,66.9,40.5,29.81,NE,35,14.0,20.0,38,0.00,,FEW049,0.92,VWS V13.01,2013-03-30 20:42:00,
2013-03-30 16:43:00,66.9,39.8,29.81,NNE,27,14.0,22.0,37,0.00,,FEW049,0.92,VWS V13.01,2013-03-30 20:43:00,
2013-03-30 16:44:00,66.9,39.1,29.81,NNE,20,4.0,22.0,36,0.00,,FEW049,0.92,VWS V13.01,2013-03-30 20:44:00,
2013-03-30 16:48:00,66.8,38.3,29.81,North,0,12.0,20.0,35,0.00,,FEW049,0.92,VWS V13.01,2013-03-30 20:48:00,
2013-03-30 16:49:00,66.8,37.6,29.81,NNW,340,12.0,20.0,34,0.00,,FEW049,0.92,VWS V13.01,2013-03-30 20:49:00,
2013-03-30 16:50:00,66.8,37.6,29.81,North,352,8.0,20.0,34,0.00,,FEW049,0.92,VWS V13.01,2013-03-30 20:50:00,
2013-03-30 16:53:00,66.6,36.6,29.81,NNE,16,6.0,24.0,33,0.00,,FEW049,0.92,VWS V13.01,2013-03-30 20:53:00,
2013-03-30 16:54:00,66.6,37.4,29.81,NNE,18,4.0,24.0,34,0.00,,FEW049,0.92,VWS V13.01,2013-03-30 20:54:00,
2013-03-30 16:55:00,66.4,37.2,29.81,North,0,10.0,18.0,34,0.00,,FEW049,0.92,VWS V13.01,2013-03-30 20:55:00,
2013-03-30 16:59:00,66.1,38.4,29.81,NNE,30,12.0,16.0,36,0.00,,FEW049,0.92,VWS V13.01,2013-03-30 20:59:00,
2013-03-30 17:00:00,66.0,38.3,29.81,NNW,344,6.0,18.0,36,0.00,,FEW049,0.92,VWS V13.01,2013-03-30 21:00:00,
2013-03-30 17:04:00,65.8,38.8,29.81,North,353,12.0,22.0,37,0.00,,FEW049,0.92,VWS V13.01,2013-03-30 21:04:00,
2013-03-30 17:05:00,65.6,38.7,29.81,North,0,6.0,22.0,37,0.00,,FEW049,0.92,VWS V13.01,2013-03-30 21:05:00,
2013-03-30 17:06:00,65.5,38.6,29.81,NNW,346,14.0,18.0,37,0.00,,FEW049,0.92,VWS V13.01,2013-03-30 21:06:00,
2013-03-30 17:09:00,65.3,38.4,29.81,NE,40,2.0,16.0,37,0.00,,FEW049,0.92,VWS V13.01,2013-03-30 21:09:00,
2013-03-30 17:10:00,65.3,39.1,29.81,North,4,16.0,16.0,38,0.00,,FEW049,0.92,VWS V13.01,2013-03-30 21:10:00,
2013-03-30 17:12:00,65.3,38.4,29.81,North,11,12.0,16.0,37,0.00,,FEW049,0.92,VWS V13.01,2013-03-30 21:12:00,
2013-03-30 17:14:00,65.2,39.0,29.81,North,0,12.0,22.0,38,0.00,,FEW049,0.92,VWS V13.01,2013-03-30 21:14:00,
2013-03-30 17:15:00,65.2,39.0,29.81,NNW,344,6.0,22.0,38,0.00,,FEW049,0.92,VWS V13.01,2013-03-30 21:15:00,
2013-03-30 17:17:00,65.2,39.6,29.82,North,8,12.0,14.0,39,0.00,,FEW049,0.92,VWS V13.01,2013-03-30 21:17:00,
2013-03-30 17:18:00,65.3,39.7,29.82,North,349,6.0,14.0,39,0.00,,FEW049,0.92,VWS V13.01,2013-03-30 21:18:00,
2013-03-30 17:20:00,65.3,39.7,29.82,North,352,12.0,16.0,39,0.00,,FEW049,0.92,VWS V13.01,2013-03-30 21:20:00,
2013-03-30 17:21:00,65.5,39.2,29.82,NE,34,4.0,14.0,38,0.00,,FEW049,0.92,VWS V13.01,2013-03-30 21:21:00,
2013-03-30 17:22:00,65.5,39.2,29.82,North,1,10.0,14.0,38,0.00,,FEW049,0.92,VWS V13.01,2013-03-30 21:22:00,
2013-03-30 17:23:00,65.5,38.6,29.82,North,1,14.0,24.0,37,0.00,,FEW049,0.92,VWS V13.01,2013-03-30 21:23:00,
2013-03-30 17:25:00,65.6,38.0,29.82,NNE,16,14.0,22.0,36,0.00,,FEW049,0.92,VWS V13.01,2013-03-30 21:25:00,
2013-03-30 17:26:00,65.6,38.0,29.82,NW,325,12.0,22.0,36,0.00,,FEW049,0.92,VWS V13.01,2013-03-30 21:26:00,
2013-03-30 17:28:00,65.8,38.1,29.82,North,359,4.0,18.0,36,0.00,,FEW049,0.92,VWS V13.01,2013-03-30 21:28:00,
2013-03-30 17:30:00,65.8,38.8,29.82,North,0,10.0,26.0,37,0.00,,FEW049,0.92,VWS V13.01,2013-03-30 21:30:00,
2013-03-30 17:31:00,65.6,38.0,29.82,North,6,12.0,26.0,36,0.00,,FEW049,0.92,VWS V13.01,2013-03-30 21:31:00,
2013-03-30 17:33:00,65.6,38.0,29.82,NNW,330,8.0,12.0,36,0.00,,FEW049,0.92,VWS V13.01,2013-03-30 21:33:00,
2013-03-30 17:36:00,65.6,38.0,29.82,NNW,333,6.0,16.0,36,0.00,,FEW049,0.92,VWS V13.01,2013-03-30 21:36:00,
2013-03-30 17:38:00,65.8,38.1,29.82,NNW,346,16.0,20.0,36,0.00,,BKN110,0.92,VWS V13.01,2013-03-30 21:38:00,
2013-03-30 17:42:00,65.6,36.5,29.82,NW,319,10.0,16.0,34,0.00,,BKN110,0.92,VWS V13.01,2013-03-30 21:42:00,
2013-03-30 17:44:00,65.3,34.7,29.82,NNW,340,12.0,28.0,32,0.00,,BKN110,0.92,VWS V13.01,2013-03-30 21:44:00,
2013-03-30 17:47:00,65.2,36.2,29.82,NNE,20,4.0,18.0,34,0.00,,BKN110,0.92,VWS V13.01,2013-03-30 21:47:00,
2013-03-30 17:49:00,65.0,36.0,29.82,North,0,20.0,20.0,34,0.00,,BKN110,0.92,VWS V13.01,2013-03-30 21:49:00,
2013-03-30 17:50:00,65.0,36.0,29.82,North,357,8.0,20.0,34,0.00,,BKN110,0.92,VWS V13.01,2013-03-30 21:50:00,
2013-03-30 17:52:00,65.0,36.0,29.82,North,350,12.0,20.0,34,0.00,,BKN110,0.92,VWS V13.01,2013-03-30 21:52:00,
2013-03-30 17:54:00,64.8,33.5,29.82,NW,313,16.0,22.0,31,0.00,,BKN110,0.92,VWS V13.01,2013-03-30 21:54:00,
2013-03-30 17:57:00,64.8,33.5,29.82,NW,312,12.0,26.0,31,0.00,,BKN110,0.92,VWS V13.01,2013-03-30 21:57:00,
2013-03-30 17:59:00,64.7,33.4,29.82,NNW,330,6.0,22.0,31,0.00,,BKN110,0.92,VWS V13.01,2013-03-30 21:59:00,
2013-03-30 18:00:00,64.7,33.4,29.81,North,352,4.0,24.0,31,0.00,,SCT055,0.92,VWS V14.01,2013-03-30 22:00:00,
2013-03-30 18:02:00,64.7,33.4,29.81,NE,34,4.0,20.0,31,0.00,,BKN110,0.92,VWS V13.01,2013-03-30 22:02:00,
2013-03-30 18:04:00,64.8,34.3,29.81,NW,326,22.0,22.0,32,0.00,,BKN110,0.92,VWS V13.01,2013-03-30 22:04:00,
2013-03-30 18:05:00,64.8,33.5,29.81,North,356,14.0,22.0,31,0.00,,BKN110,0.92,VWS V13.01,2013-03-30 22:05:00,
2013-03-30 18:07:00,65.0,34.5,29.81,NNE,28,12.0,18.0,32,0.00,,BKN110,0.92,VWS V13.01,2013-03-30 22:07:00,
2013-03-30 18:09:00,65.0,35.2,29.81,North,354,4.0,16.0,33,0.00,,BKN110,0.92,VWS V13.01,2013-03-30 22:09:00,
2013-03-30 18:10:00,65.0,35.2,29.81,North,0,10.0,14.0,33,0.00,,BKN110,0.92,VWS V13.01,2013-03-30 22:10:00,
2013-03-30 18:12:00,65.0,35.2,29.81,North,356,14.0,22.0,33,0.00,,BKN110,0.92,VWS V13.01,2013-03-30 22:12:00,
2013-03-30 18:14:00,65.0,35.2,29.81,North,0,10.0,22.0,33,0.00,,BKN110,0.92,VWS V13.01,2013-03-30 22:14:00,
2013-03-30 18:15:00,65.0,36.0,29.81,North,357,10.0,16.0,34,0.00,,BKN110,0.92,VWS V13.01,2013-03-30 22:15:00,
2013-03-30 18:17:00,65.0,36.0,29.81,North,0,12.0,14.0,34,0.00,,BKN110,0.92,VWS V13.01,2013-03-30 22:17:00,
2013-03-30 18:20:00,64.8,35.0,29.81,North,353,10.0,14.0,33,0.00,,BKN110,0.92,VWS V13.01,2013-03-30 22:20:00,
2013-03-30 18:23:00,65.0,36.0,29.81,NW,326,0.0,14.0,34,0.00,,BKN110,0.92,VWS V13.01,2013-03-30 22:23:00,
2013-03-30 18:25:00,65.0,36.0,29.81,NNE,16,6.0,18.0,34,0.00,,BKN110,0.92,VWS V13.01,2013-03-30 22:25:00,
2013-03-30 18:27:00,65.0,36.7,29.81,NNW,333,4.0,6.0,35,0.00,,BKN110,0.92,VWS V13.01,2013-03-30 22:27:00,
2013-03-30 18:28:00,65.0,36.7,29.81,NNW,342,14.0,20.0,35,0.00,,BKN110,0.92,VWS V13.01,2013-03-30 22:28:00,
2013-03-30 18:30:00,65.2,36.2,29.82,North,0,2.0,18.0,34,0.00,,BKN110,0.92,VWS V13.01,2013-03-30 22:30:00,
2013-03-30 18:31:00,65.2,36.2,29.82,North,11,12.0,14.0,34,0.00,,BKN110,0.92,VWS V13.01,2013-03-30 22:31:00,
2013-03-30 18:32:00,65.2,35.4,29.82,North,0,12.0,18.0,33,0.00,,BKN110,0.92,VWS V13.01,2013-03-30 22:32:00,
2013-03-30 18:33:00,65.2,35.4,29.82,North,0,4.0,18.0,33,0.00,,BKN110,0.92,VWS V13.01,2013-03-30 22:33:00,
2013-03-30 18:36:00,65.2,35.4,29.82,North,0,10.0,22.0,33,0.00,,BKN110,0.92,VWS V13.01,2013-03-30 22:36:00,
2013-03-30 18:37:00,65.2,35.4,29.82,North,0,2.0,22.0,33,0.00,,BKN110,0.92,VWS V13.01,2013-03-30 22:37:00,
2013-03-30 18:38:00,65.0,35.2,29.82,North,10,2.0,12.0,33,0.00,,SCT110,0.92,VWS V13.01,2013-03-30 22:38:00,
2013-03-30 18:42:00,65.0,34.5,29.82,NW,316,14.0,20.0,32,0.00,,SCT110,0.92,VWS V13.01,2013-03-30 22:42:00,
2013-03-30 18:43:00,65.0,34.5,29.82,North,0,14.0,20.0,32,0.00,,SCT110,0.92,VWS V13.01,2013-03-30 22:43:00,
2013-03-30 18:44:00,65.0,34.5,29.82,NW,323,14.0,20.0,32,0.00,,SCT110,0.92,VWS V13.01,2013-03-30 22:44:00,
2013-03-30 18:48:00,64.8,35.0,29.82,NW,320,12.0,20.0,33,0.00,,SCT110,0.92,VWS V13.01,2013-03-30 22:48:00,
2013-03-30 18:50:00,64.7,35.0,29.82,North,0,12.0,22.0,33,0.00,,SCT110,0.92,VWS V13.01,2013-03-30 22:50:00,
2013-03-30 18:53:00,64.5,34.8,29.82,North,10,4.0,24.0,33,0.00,,SCT110,0.92,VWS V13.01,2013-03-30 22:53:00,
2013-03-30 18:54:00,64.5,34.8,29.82,NNW,333,2.0,20.0,33,0.00,,SCT110,0.92,VWS V13.01,2013-03-30 22:54:00,
2013-03-30 18:55:00,64.3,34.6,29.82,NNW,332,22.0,22.0,33,0.00,,SCT110,0.92,VWS V13.01,2013-03-30 22:55:00,
2013-03-30 18:58:00,64.3,34.6,29.82,North,0,4.0,18.0,33,0.00,,SCT110,0.92,VWS V13.01,2013-03-30 22:58:00,
2013-03-30 19:00:00,64.2,35.3,29.82,North,349,10.0,26.0,34,0.00,,SCT055,0.92,VWS V14.01,2013-03-30 23:00:00,
2013-03-30 19:01:00,64.3,35.4,29.82,NNW,344,6.0,26.0,34,0.00,,SCT110,0.92,VWS V13.01,2013-03-30 23:01:00,
2013-03-30 19:03:00,64.2,35.3,29.82,NNW,340,12.0,24.0,34,0.00,,SCT110,0.92,VWS V13.01,2013-03-30 23:03:00,
2013-03-30 19:06:00,64.0,35.8,29.82,North,353,12.0,20.0,35,0.00,,SCT110,0.92,VWS V13.01,2013-03-30 23:06:00,
2013-03-30 19:09:00,64.0,35.8,29.82,NW,315,12.0,14.0,35,0.00,,SCT110,0.92,VWS V13.01,2013-03-30 23:09:00,
2013-03-30 19:11:00,63.9,35.7,29.82,North,354,12.0,20.0,35,0.00,,SCT110,0.92,VWS V13.01,2013-03-30 23:11:00,
2013-03-30 19:14:00,63.7,36.3,29.82,NNW,339,4.0,12.0,36,0.00,,SCT110,0.92,VWS V13.01,2013-03-30 23:14:00,
2013-03-30 19:16:00,63.7,37.0,29.82,North,0,8.0,14.0,37,0.00,,SCT110,0.92,VWS V13.01,2013-03-30 23:16:00,
2013-03-30 19:17:00,63.7,37.0,29.82,North,357,2.0,12.0,37,0.00,,SCT110,0.92,VWS V13.01,2013-03-30 23:17:00,
2013-03-30 19:19:00,63.7,37.0,29.82,NW,312,8.0,20.0,37,0.00,,SCT110,0.92,VWS V13.01,2013-03-30 23:19:00,
2013-03-30 19:21:00,63.7,37.0,29.82,NNE,13,6.0,20.0,37,0.00,,SCT110,0.92,VWS V13.01,2013-03-30 23:21:00,
2013-03-30 19:23:00,63.5,36.8,29.82,North,353,2.0,14.0,37,0.00,,SCT110,0.92,VWS V13.01,2013-03-30 23:23:00,
2013-03-30 19:25:00,63.5,36.8,29.82,North,352,0.0,6.0,37,0.00,,SCT110,0.92,VWS V13.01,2013-03-30 23:25:00,
2013-03-30 19:26:00,63.5,36.8,29.82,North,353,4.0,4.0,37,0.00,,SCT110,0.92,VWS V13.01,2013-03-30 23:26:00,
2013-03-30 19:28:00,63.5,36.1,29.82,North,0,12.0,20.0,36,0.00,,SCT110,0.92,VWS V13.01,2013-03-30 23:28:00,
2013-03-30 19:30:00,63.5,36.1,29.82,North,357,4.0,18.0,36,0.00,,SCT110,0.92,VWS V13.01,2013-03-30 23:30:00,
2013-03-30 19:31:00,63.5,36.1,29.83,North,353,4.0,18.0,36,0.00,,SCT110,0.92,VWS V13.01,2013-03-30 23:31:00,
2013-03-30 19:33:00,63.5,35.4,29.83,SW,232,4.0,18.0,35,0.00,,SCT110,0.92,VWS V13.01,2013-03-30 23:33:00,
2013-03-30 19:34:00,63.5,35.4,29.83,WSW,239,2.0,18.0,35,0.00,,SCT110,0.92,VWS V13.01,2013-03-30 23:34:00,
2013-03-30 19:35:00,63.4,35.3,29.83,North,0,0.0,12.0,35,0.00,,SCT110,0.92,VWS V13.01,2013-03-30 23:35:00,
2013-03-30 19:36:00,63.5,35.4,29.83,North,0,0.0,12.0,35,0.00,,SCT110,0.92,VWS V13.01,2013-03-30 23:36:00,
2013-03-30 19:39:00,63.5,35.4,29.83,NNW,346,10.0,18.0,35,0.00,,SCT100,0.92,VWS V13.01,2013-03-30 23:39:00,
2013-03-30 19:41:00,63.4,35.3,29.83,NNW,335,10.0,22.0,35,0.00,,SCT100,0.92,VWS V13.01,2013-03-30 23:41:00,
2013-03-30 19:42:00,63.4,35.3,29.83,North,4,12.0,22.0,35,0.00,,SCT100,0.92,VWS V13.01,2013-03-30 23:42:00,
2013-03-30 19:44:00,63.4,35.3,29.83,North,8,2.0,16.0,35,0.00,,SCT100,0.92,VWS V13.01,2013-03-30 23:44:00,
2013-03-30 19:47:00,63.2,35.1,29.83,NNW,342,2.0,12.0,35,0.00,,SCT100,0.92,VWS V13.01,2013-03-30 23:47:00,
2013-03-30 19:49:00,63.1,35.0,29.83,NW,316,12.0,18.0,35,0.00,,SCT100,0.92,VWS V13.01,2013-03-30 23:49:00,
2013-03-30 19:50:00,63.1,35.0,29.83,NNW,336,6.0,22.0,35,0.00,,SCT100,0.92,VWS V13.01,2013-03-30 23:50:00,
2013-03-30 19:52:00,62.9,34.1,29.83,North,350,6.0,20.0,34,0.00,,SCT100,0.92,VWS V13.01,2013-03-30 23:52:00,
2013-03-30 19:54:00,62.7,34.0,29.83,North,1,8.0,14.0,34,0.00,,SCT100,0.92,VWS V13.01,2013-03-30 23:54:00,
2013-03-30 19:55:00,62.7,34.0,29.83,North,4,2.0,14.0,34,0.00,,SCT100,0.92,VWS V13.01,2013-03-30 23:55:00,
2013-03-30 19:57:00,62.6,34.6,29.83,North,4,0.0,8.0,35,0.00,,SCT100,0.92,VWS V13.01,2013-03-30 23:57:00,
2013-03-30 19:59:00,62.6,34.6,29.83,North,4,2.0,8.0,35,0.00,,SCT100,0.92,VWS V13.01,2013-03-30 23:59:00,
2013-03-30 20:00:00,62.6,34.6,29.83,North,4,8.0,8.0,35,0.00,,SCT100,0.92,VWS V13.01,2013-03-31 00:00:00,
2013-03-30 20:02:00,62.4,34.4,29.83,NNW,332,10.0,14.0,35,0.00,,SCT100,0.92,VWS V13.01,2013-03-31 00:02:00,
2013-03-30 20:03:00,62.4,34.4,29.83,North,349,8.0,14.0,35,0.00,,SCT100,0.92,VWS V13.01,2013-03-31 00:03:00,
2013-03-30 20:05:00,62.4,33.7,29.83,NNW,337,2.0,10.0,34,0.00,,SCT100,0.92,VWS V13.01,2013-03-31 00:05:00,
2013-03-30 20:07:00,62.4,34.4,29.83,NNW,337,0.0,4.0,35,0.00,,SCT100,0.92,VWS V13.01,2013-03-31 00:07:00,
2013-03-30 20:08:00,62.4,34.4,29.83,NNW,337,4.0,4.0,35,0.00,,SCT110,0.92,VWS V13.01,2013-03-31 00:08:00,
2013-03-30 20:10:00,62.4,35.1,29.83,North,352,2.0,10.0,36,0.00,,SCT110,0.92,VWS V13.01,2013-03-31 00:10:00,
2013-03-30 20:12:00,62.4,35.1,29.83,North,352,6.0,6.0,36,0.00,,SCT110,0.92,VWS V13.01,2013-03-31 00:12:00,
2013-03-30 20:14:00,62.6,35.3,29.83,North,352,0.0,6.0,36,0.00,,SCT110,0.92,VWS V13.01,2013-03-31 00:14:00,
2013-03-30 20:15:00,62.6,35.3,29.82,NW,315,10.0,10.0,36,0.00,,SCT110,0.92,VWS V13.01,2013-03-31 00:15:00,
2013-03-30 20:17:00,62.4,34.4,29.82,NNW,329,4.0,10.0,35,0.00,,SCT110,0.92,VWS V13.01,2013-03-31 00:17:00,
2013-03-30 20:18:00,62.4,34.4,29.82,North,3,4.0,10.0,35,0.00,,SCT110,0.92,VWS V13.01,2013-03-31 00:18:00,
2013-03-30 20:19:00,62.4,34.4,29.82,North,3,0.0,6.0,35,0.00,,SCT110,0.92,VWS V13.01,2013-03-31 00:19:00,
2013-03-30 20:20:00,62.4,34.4,29.82,NW,316,4.0,8.0,35,0.00,,SCT110,0.92,VWS V13.01,2013-03-31 00:20:00,
2013-03-30 20:22:00,62.4,34.4,29.82,NNW,330,8.0,16.0,35,0.00,,SCT110,0.92,VWS V13.01,2013-03-31 00:22:00,
2013-03-30 20:23:00,62.3,33.6,29.82,North,0,2.0,14.0,34,0.00,,SCT110,0.92,VWS V13.01,2013-03-31 00:23:00,
2013-03-30 20:24:00,62.3,33.6,29.82,North,11,6.0,14.0,34,0.00,,SCT110,0.92,VWS V13.01,2013-03-31 00:24:00,
2013-03-30 20:26:00,62.1,34.2,29.82,NNE,13,4.0,6.0,35,0.00,,SCT110,0.92,VWS V13.01,2013-03-31 00:26:00,
2013-03-30 20:27:00,62.1,34.8,29.82,NNE,13,4.0,4.0,36,0.00,,SCT110,0.92,VWS V13.01,2013-03-31 00:27:00,
2013-03-30 20:28:00,62.1,34.8,29.82,NNE,13,2.0,4.0,36,0.00,,SCT110,0.92,VWS V13.01,2013-03-31 00:28:00,
2013-03-30 20:29:00,62.1,34.8,29.82,North,10,6.0,6.0,36,0.00,,SCT110,0.92,VWS V13.01,2013-03-31 00:29:00,
2013-03-30 20:30:00,62.1,34.8,29.83,North,0,10.0,12.0,36,0.00,,SCT055,0.92,VWS V14.01,2013-03-31 00:30:00,
2013-03-30 20:32:00,62.0,34.8,29.83,NW,315,4.0,12.0,36,0.00,,SCT110,0.92,VWS V13.01,2013-03-31 00:32:00,
2013-03-30 20:33:00,62.0,34.8,29.83,NW,323,4.0,12.0,36,0.00,,SCT110,0.92,VWS V13.01,2013-03-31 00:33:00,
2013-03-30 20:34:00,62.0,34.8,29.83,NW,323,4.0,6.0,36,0.00,,SCT110,0.92,VWS V13.01,2013-03-31 00:34:00,
2013-03-30 20:35:00,62.0,34.8,29.83,NW,326,14.0,16.0,36,0.00,,SCT110,0.92,VWS V13.01,2013-03-31 00:35:00,
2013-03-30 20:37:00,61.8,34.6,29.83,NNW,337,4.0,6.0,36,0.00,,SCT110,0.92,VWS V13.01,2013-03-31 00:37:00,
2013-03-30 20:38:00,61.8,34.6,29.83,NNW,337,2.0,6.0,36,0.00,,SCT110,0.92,VWS V13.01,2013-03-31 00:38:00,
2013-03-30 20:39:00,61.8,34.6,29.83,NNW,337,4.0,6.0,36,0.00,,SCT110,0.92,VWS V13.01,2013-03-31 00:39:00,
2013-03-30 20:40:00,61.6,35.1,29.83,NNW,337,2.0,6.0,37,0.00,,SCT110,0.92,VWS V13.01,2013-03-31 00:40:00,
2013-03-30 20:42:00,61.6,35.1,29.83,North,357,2.0,6.0,37,0.00,,SCT110,0.92,VWS V13.01,2013-03-31 00:42:00,
2013-03-30 20:43:00,61.6,35.1,29.83,North,357,0.0,6.0,37,0.00,,SCT110,0.92,VWS V13.01,2013-03-31 00:43:00,
2013-03-30 20:45:00,61.5,35.0,29.83,North,357,2.0,6.0,37,0.00,,SCT110,0.92,VWS V13.01,2013-03-31 00:45:00,
2013-03-30 20:47:00,61.5,35.0,29.83,North,0,0.0,6.0,37,0.00,,SCT110,0.92,VWS V13.01,2013-03-31 00:47:00,
2013-03-30 20:48:00,61.3,34.8,29.83,North,352,4.0,10.0,37,0.00,,SCT110,0.92,VWS V13.01,2013-03-31 00:48:00,
2013-03-30 20:50:00,61.3,34.8,29.83,North,352,0.0,8.0,37,0.00,,SCT110,0.92,VWS V13.01,2013-03-31 00:50:00,
2013-03-30 20:52:00,61.3,35.5,29.83,North,352,0.0,4.0,38,0.00,,SCT110,0.92,VWS V13.01,2013-03-31 00:52:00,
2013-03-30 20:53:00,61.3,35.5,29.83,North,352,0.0,0.0,38,0.00,,SCT110,0.92,VWS V13.01,2013-03-31 00:53:00,
2013-03-30 20:54:00,61.2,35.4,29.83,North,352,0.0,2.0,38,0.00,,SCT110,0.92,VWS V13.01,2013-03-31 00:54:00,
2013-03-30 20:55:00,61.2,35.4,29.83,North,352,0.0,2.0,38,0.00,,SCT110,0.92,VWS V13.01,2013-03-31 00:55:00,
2013-03-30 20:58:00,61.0,35.2,29.83,North,354,0.0,6.0,38,0.00,,SCT110,0.92,VWS V13.01,2013-03-31 00:58:00,
2013-03-30 21:00:00,61.0,35.2,29.83,North,354,0.0,2.0,38,0.00,,SCT110,0.92,VWS V13.01,2013-03-31 01:00:00,
2013-03-30 21:01:00,61.0,35.9,29.83,North,354,6.0,6.0,39,0.00,,SCT110,0.92,VWS V13.01,2013-03-31 01:01:00,
2013-03-30 21:03:00,60.9,35.8,29.83,North,354,0.0,4.0,39,0.00,,SCT110,0.92,VWS V13.01,2013-03-31 01:03:00,
2013-03-30 21:05:00,60.7,35.6,29.83,North,354,0.0,4.0,39,0.00,,SCT110,0.92,VWS V13.01,2013-03-31 01:05:00,
2013-03-30 21:06:00,60.7,35.6,29.83,North,354,0.0,4.0,39,0.00,,SCT110,0.92,VWS V13.01,2013-03-31 01:06:00,
2013-03-30 21:09:00,60.5,35.4,29.83,North,354,0.0,4.0,39,0.00,,SCT110,0.92,VWS V13.01,2013-03-31 01:09:00,
2013-03-30 21:11:00,60.5,35.4,29.83,North,354,0.0,0.0,39,0.00,,SCT110,0.92,VWS V13.01,2013-03-31 01:11:00,
2013-03-30 21:12:00,60.5,35.4,29.83,North,354,2.0,2.0,39,0.00,,SCT110,0.92,VWS V13.01,2013-03-31 01:12:00,
2013-03-30 21:14:00,60.4,36.0,29.83,North,354,0.0,4.0,40,0.00,,SCT110,0.92,VWS V13.01,2013-03-31 01:14:00,
2013-03-30 21:16:00,60.2,35.8,29.84,North,354,0.0,4.0,40,0.00,,SCT110,0.92,VWS V13.01,2013-03-31 01:16:00,
2013-03-30 21:17:00,60.2,35.8,29.84,North,354,0.0,4.0,40,0.00,,SCT110,0.92,VWS V13.01,2013-03-31 01:17:00,
2013-03-30 21:19:00,60.2,35.8,29.84,North,354,4.0,4.0,40,0.00,,SCT110,0.92,VWS V13.01,2013-03-31 01:19:00,
2013-03-30 21:20:00,60.1,35.7,29.84,North,354,0.0,4.0,40,0.00,,SCT110,0.92,VWS V13.01,2013-03-31 01:20:00,
2013-03-30 21:22:00,60.1,35.7,29.84,North,354,0.0,2.0,40,0.00,,SCT110,0.92,VWS V13.01,2013-03-31 01:22:00,
2013-03-30 21:24:00,59.9,36.2,29.84,North,354,0.0,0.0,41,0.00,,SCT110,0.92,VWS V13.01,2013-03-31 01:24:00,
2013-03-30 21:25:00,59.9,36.2,29.84,North,354,0.0,0.0,41,0.00,,SCT110,0.92,VWS V13.01,2013-03-31 01:25:00,
2013-03-30 21:27:00,59.9,36.8,29.84,North,354,2.0,2.0,42,0.00,,SCT110,0.92,VWS V13.01,2013-03-31 01:27:00,
2013-03-30 21:28:00,59.8,36.1,29.84,North,354,0.0,2.0,41,0.00,,SCT110,0.92,VWS V13.01,2013-03-31 01:28:00,
2013-03-30 21:30:00,59.8,36.1,29.84,North,354,0.0,0.0,41,0.00,,SCT110,0.92,VWS V13.01,2013-03-31 01:30:00,
2013-03-30 21:33:00,59.6,36.5,29.84,North,354,0.0,4.0,42,0.00,,SCT110,0.92,VWS V13.01,2013-03-31 01:33:00,
2013-03-30 21:35:00,59.6,36.5,29.84,North,354,0.0,4.0,42,0.00,,SCT110,0.92,VWS V13.01,2013-03-31 01:35:00,
2013-03-30 21:38:00,59.5,36.4,29.84,North,354,0.0,4.0,42,0.00,,FEW100,0.92,VWS V13.01,2013-03-31 01:38:00,
2013-03-30 21:40:00,59.5,37.0,29.84,North,354,0.0,2.0,43,0.00,,FEW100,0.92,VWS V13.01,2013-03-31 01:40:00,
2013-03-30 21:43:00,59.3,36.8,29.84,North,354,0.0,0.0,43,0.00,,FEW100,0.92,VWS V13.01,2013-03-31 01:43:00,
2013-03-30 21:44:00,59.3,36.8,29.84,North,354,0.0,0.0,43,0.00,,FEW100,0.92,VWS V13.01,2013-03-31 01:44:00,
2013-03-30 21:45:00,59.3,36.8,29.84,North,354,4.0,6.0,43,0.00,,FEW100,0.92,VWS V13.01,2013-03-31 01:45:00,
2013-03-30 21:48:00,59.2,36.7,29.85,North,354,0.0,2.0,43,0.00,,FEW100,0.92,VWS V13.01,2013-03-31 01:48:00,
2013-03-30 21:49:00,59.2,36.7,29.85,NNW,336,4.0,4.0,43,0.00,,FEW100,0.92,VWS V13.01,2013-03-31 01:49:00,
2013-03-30 21:51:00,59.2,36.7,29.85,North,0,0.0,6.0,43,0.00,,FEW100,0.92,VWS V13.01,2013-03-31 01:51:00,
2013-03-30 21:53:00,59.0,36.6,29.85,North,0,0.0,6.0,43,0.00,,FEW100,0.92,VWS V13.01,2013-03-31 01:53:00,
2013-03-30 21:54:00,59.0,37.1,29.85,North,0,0.0,2.0,44,0.00,,FEW100,0.92,VWS V13.01,2013-03-31 01:54:00,
2013-03-30 21:56:00,59.0,37.1,29.85,North,0,0.0,0.0,44,0.00,,FEW100,0.92,VWS V13.01,2013-03-31 01:56:00,
2013-03-30 21:57:00,59.0,37.1,29.85,North,0,0.0,0.0,44,0.00,,FEW100,0.92,VWS V13.01,2013-03-31 01:57:00,
2013-03-30 21:58:00,59.0,37.1,29.85,North,0,0.0,0.0,44,0.00,,FEW100,0.92,VWS V13.01,2013-03-31 01:58:00,
2013-03-30 22:00:00,59.0,37.1,29.85,North,0,0.0,0.0,44,0.00,,FEW100,0.92,VWS V13.01,2013-03-31 02:00:00,
2013-03-30 22:01:00,58.9,37.0,29.85,North,0,0.0,0.0,44,0.00,,FEW100,0.92,VWS V13.01,2013-03-31 02:01:00,
2013-03-30 22:02:00,58.9,37.6,29.85,North,0,0.0,0.0,45,0.00,,FEW100,0.92,VWS V13.01,2013-03-31 02:02:00,
2013-03-30 22:03:00,58.9,37.0,29.85,North,0,0.0,2.0,44,0.00,,FEW100,0.92,VWS V13.01,2013-03-31 02:03:00,
2013-03-30 22:06:00,58.9,37.0,29.85,North,0,0.0,4.0,44,0.00,,FEW100,0.92,VWS V13.01,2013-03-31 02:06:00,
2013-03-30 22:07:00,58.9,37.6,29.85,North,0,0.0,0.0,45,0.00,,FEW100,0.92,VWS V13.01,2013-03-31 02:07:00,
2013-03-30 22:09:00,58.9,37.0,29.85,North,0,0.0,0.0,44,0.00,,FEW100,0.92,VWS V13.01,2013-03-31 02:09:00,
2013-03-30 22:11:00,58.7,36.9,29.85,North,0,0.0,0.0,44,0.00,,FEW100,0.92,VWS V13.01,2013-03-31 02:11:00,
2013-03-30 22:12:00,58.7,36.9,29.85,North,0,0.0,0.0,44,0.00,,FEW100,0.92,VWS V13.01,2013-03-31 02:12:00,
2013-03-30 22:14:00,58.7,37.4,29.85,North,0,0.0,0.0,45,0.00,,FEW100,0.92,VWS V13.01,2013-03-31 02:14:00,
2013-03-30 22:17:00,58.7,37.4,29.85,North,0,0.0,0.0,45,0.00,,FEW100,0.92,VWS V13.01,2013-03-31 02:17:00,
2013-03-30 22:19:00,58.6,37.3,29.85,North,0,0.0,0.0,45,0.00,,FEW100,0.92,VWS V13.01,2013-03-31 02:19:00,
2013-03-30 22:20:00,58.6,37.3,29.85,North,0,0.0,0.0,45,0.00,,FEW100,0.92,VWS V13.01,2013-03-31 02:20:00,
2013-03-30 22:22:00,58.6,37.3,29.85,North,0,0.0,2.0,45,0.00,,FEW100,0.92,VWS V13.01,2013-03-31 02:22:00,
2013-03-30 22:25:00,58.4,37.2,29.85,North,0,0.0,4.0,45,0.00,,FEW100,0.92,VWS V13.01,2013-03-31 02:25:00,
2013-03-30 22:27:00,58.4,37.2,29.85,North,0,0.0,2.0,45,0.00,,FEW100,0.92,VWS V13.01,2013-03-31 02:27:00,
2013-03-30 22:28:00,58.4,37.2,29.85,North,0,0.0,2.0,45,0.00,,FEW100,0.92,VWS V13.01,2013-03-31 02:28:00,
2013-03-30 22:30:00,58.4,37.2,29.85,North,0,0.0,4.0,45,0.00,,FEW100,0.92,VWS V13.01,2013-03-31 02:30:00,
2013-03-30 22:31:00,58.4,37.2,29.86,North,0,0.0,4.0,45,0.00,,FEW100,0.92,VWS V13.01,2013-03-31 02:31:00,
2013-03-30 22:33:00,58.4,37.2,29.86,North,0,0.0,0.0,45,0.00,,FEW100,0.92,VWS V13.01,2013-03-31 02:33:00,
2013-03-30 22:35:00,58.4,37.2,29.86,North,0,0.0,4.0,45,0.00,,FEW100,0.92,VWS V13.01,2013-03-31 02:35:00,
2013-03-30 22:36:00,58.3,37.1,29.86,North,0,2.0,2.0,45,0.00,,FEW100,0.92,VWS V13.01,2013-03-31 02:36:00,
2013-03-30 22:38:00,58.3,37.1,29.86,North,0,6.0,6.0,45,0.00,,CLR,0.92,VWS V13.01,2013-03-31 02:38:00,
2013-03-30 22:39:00,58.3,37.1,29.86,North,0,2.0,6.0,45,0.00,,CLR,0.92,VWS V13.01,2013-03-31 02:39:00,
2013-03-30 22:40:00,58.3,37.1,29.86,North,0,0.0,6.0,45,0.00,,CLR,0.92,VWS V13.01,2013-03-31 02:40:00,
2013-03-30 22:42:00,58.3,37.1,29.86,North,352,2.0,2.0,45,0.00,,CLR,0.92,VWS V13.01,2013-03-31 02:42:00,
2013-03-30 22:44:00,58.3,37.1,29.86,North,354,4.0,6.0,45,0.00,,CLR,0.92,VWS V13.01,2013-03-31 02:44:00,
2013-03-30 22:45:00,58.3,37.1,29.86,North,354,2.0,6.0,45,0.00,,CLR,0.92,VWS V13.01,2013-03-31 02:45:00,
2013-03-30 22:47:00,58.3,37.6,29.86,North,354,0.0,4.0,46,0.00,,CLR,0.92,VWS V13.01,2013-03-31 02:47:00,
2013-03-30 22:49:00,58.1,37.5,29.86,North,352,2.0,10.0,46,0.00,,CLR,0.92,VWS V13.01,2013-03-31 02:49:00,
2013-03-30 22:50:00,58.1,37.5,29.86,North,356,2.0,6.0,46,0.00,,CLR,0.92,VWS V13.01,2013-03-31 02:50:00,
2013-03-30 22:52:00,58.1,37.5,29.86,North,0,6.0,6.0,46,0.00,,CLR,0.92,VWS V13.01,2013-03-31 02:52:00,
2013-03-30 22:54:00,58.1,37.5,29.86,North,0,0.0,10.0,46,0.00,,CLR,0.92,VWS V13.01,2013-03-31 02:54:00,
2013-03-30 22:55:00,58.1,37.5,29.86,NNW,347,6.0,10.0,46,0.00,,CLR,0.92,VWS V13.01,2013-03-31 02:55:00,
2013-03-30 22:57:00,58.0,37.4,29.86,North,352,4.0,10.0,46,0.00,,CLR,0.92,VWS V13.01,2013-03-31 02:57:00,
2013-03-30 22:59:00,58.0,37.9,29.86,NNW,346,10.0,16.0,47,0.00,,CLR,0.92,VWS V13.01,2013-03-31 02:59:00,
2013-03-30 23:00:00,57.8,37.7,29.86,North,359,12.0,12.0,47,0.00,,CLR,0.92,VWS V13.01,2013-03-31 03:00:00,
2013-03-30 23:02:00,57.8,37.7,29.87,North,6,12.0,14.0,47,0.00,,CLR,0.92,VWS V13.01,2013-03-31 03:02:00,
2013-03-30 23:05:00,57.6,38.1,29.87,North,7,6.0,10.0,48,0.00,,CLR,0.92,VWS V13.01,2013-03-31 03:05:00,
2013-03-30 23:06:00,57.5,38.5,29.87,NW,322,2.0,12.0,49,0.00,,CLR,0.92,VWS V13.01,2013-03-31 03:06:00,
2013-03-30 23:07:00,57.5,38.5,29.87,NNE,16,10.0,16.0,49,0.00,,CLR,0.92,VWS V13.01,2013-03-31 03:07:00,
2013-03-30 23:10:00,57.2,38.2,29.87,North,0,8.0,14.0,49,0.00,,CLR,0.92,VWS V13.01,2013-03-31 03:10:00,
2013-03-30 23:12:00,57.0,38.6,29.87,NNW,339,14.0,14.0,50,0.00,,CLR,0.92,VWS V13.01,2013-03-31 03:12:00,
2013-03-30 23:15:00,56.9,39.0,29.87,NNW,346,2.0,6.0,51,0.00,,CLR,0.92,VWS V13.01,2013-03-31 03:15:00,
2013-03-30 23:17:00,56.7,38.8,29.87,NNW,346,0.0,0.0,51,0.00,,CLR,0.92,VWS V13.01,2013-03-31 03:17:00,
2013-03-30 23:18:00,56.7,38.8,29.87,NNW,346,0.0,0.0,51,0.00,,CLR,0.92,VWS V13.01,2013-03-31 03:18:00,
2013-03-30 23:22:00,56.6,39.2,29.87,NNE,21,4.0,4.0,52,0.00,,CLR,0.92,VWS V13.01,2013-03-31 03:22:00,
2013-03-30 23:23:00,56.6,39.2,29.87,NNE,17,10.0,10.0,52,0.00,,CLR,0.92,VWS V13.01,2013-03-31 03:23:00,
2013-03-30 23:27:00,56.3,39.4,29.87,NNW,343,0.0,4.0,53,0.00,,CLR,0.92,VWS V13.01,2013-03-31 03:27:00,
2013-03-30 23:28:00,56.3,39.4,29.87,NNW,343,2.0,4.0,53,0.00,,CLR,0.92,VWS V13.01,2013-03-31 03:28:00,
2013-03-30 23:29:00,56.3,39.4,29.87,NNW,343,4.0,6.0,53,0.00,,CLR,0.92,VWS V13.01,2013-03-31 03:29:00,
2013-03-30 23:30:00,56.2,39.8,29.88,NNW,343,2.0,4.0,54,0.00,,SCT055,0.92,VWS V14.01,2013-03-31 03:30:00,
2013-03-30 23:32:00,56.0,39.6,29.88,NNW,343,0.0,4.0,54,0.00,,CLR,0.92,VWS V13.01,2013-03-31 03:32:00,
2013-03-30 23:33:00,56.0,39.6,29.88,NNW,343,0.0,4.0,54,0.00,,CLR,0.92,VWS V13.01,2013-03-31 03:33:00,
2013-03-30 23:34:00,56.0,39.6,29.88,NNW,343,0.0,0.0,54,0.00,,CLR,0.92,VWS V13.01,2013-03-31 03:34:00,
2013-03-30 23:38:00,55.9,40.0,29.88,North,11,2.0,6.0,55,0.00,,SCT110,0.92,VWS V13.01,2013-03-31 03:38:00,
2013-03-30 23:39:00,55.7,39.8,29.88,North,11,0.0,6.0,55,0.00,,SCT110,0.92,VWS V13.01,2013-03-31 03:39:00,
2013-03-30 23:43:00,55.6,40.2,29.88,North,11,0.0,4.0,56,0.00,,SCT110,0.92,VWS V13.01,2013-03-31 03:43:00,
2013-03-30 23:44:00,55.6,40.2,29.88,North,11,0.0,4.0,56,0.00,,SCT110,0.92,VWS V13.01,2013-03-31 03:44:00,
2013-03-30 23:45:00,55.6,40.2,29.88,North,11,0.0,0.0,56,0.00,,SCT110,0.92,VWS V13.01,2013-03-31 03:45:00,
2013-03-30 23:47:00,55.6,40.2,29.87,North,11,0.0,0.0,56,0.00,,SCT110,0.92,VWS V13.01,2013-03-31 03:47:00,
2013-03-30 23:48:00,55.4,40.0,29.87,North,11,0.0,0.0,56,0.00,,SCT110,0.92,VWS V13.01,2013-03-31 03:48:00,
2013-03-30 23:49:00,55.4,40.4,29.87,North,11,0.0,4.0,57,0.00,,SCT110,0.92,VWS V13.01,2013-03-31 03:49:00,
2013-03-30 23:51:00,55.4,40.4,29.87,North,11,2.0,4.0,57,0.00,,SCT110,0.92,VWS V13.01,2013-03-31 03:51:00,
2013-03-30 23:52:00,55.3,40.3,29.87,North,11,2.0,4.0,57,0.00,,SCT110,0.92,VWS V13.01,2013-03-31 03:52:00,
2013-03-30 23:54:00,55.3,40.3,29.87,North,8,2.0,4.0,57,0.00,,SCT110,0.92,VWS V13.01,2013-03-31 03:54:00,
2013-03-30 23:55:00,55.3,40.3,29.87,North,11,0.0,4.0,57,0.00,,SCT110,0.92,VWS V13.01,2013-03-31 03:55:00,
2013-03-30 23:57:00,55.1,40.2,29.87,North,11,2.0,2.0,57,0.00,,SCT110,0.92,VWS V13.01,2013-03-31 03:57:00,
2013-03-30 23:59:00,55.1,40.6,29.87,North,11,0.0,4.0,58,0.00,,SCT110,0.92,VWS V13.01,2013-03-31 03:59:00,